Time,TemperatureF,DewpointF,PressureIn,WindDirection,WindDirectionDegrees,WindSpeedMPH,WindSpeedGustMPH,Humidity,HourlyPrecipIn,Conditions,Clouds,dailyrainin,SoftwareType,DateUTC
2009-02-27 00:02:00,40.8,38.9,30.25,SSW,202,0.0,0.0,93,0.00,,,0.00,Wunderground v.1.15,2009-02-27 08:02:00,
2009-02-27 00:05:00,40.8,38.9,30.24,SSW,202,0.0,0.0,93,0.00,,,0.00,Wunderground v.1.15,2009-02-27 08:05:00,
2009-02-27 00:07:00,40.8,38.9,30.24,SSW,202,0.0,0.0,93,0.00,,,0.00,Wunderground v.1.15,2009-02-27 08:07:00,
2009-02-27 00:09:00,40.9,39.0,30.24,SSW,202,2.0,2.0,93,0.00,,,0.00,Wunderground v.1.15,2009-02-27 08:09:00,
2009-02-27 00:10:00,40.9,38.8,30.24,SSW,202,1.0,1.0,92,0.00,,,0.00,Wunderground v.1.15,2009-02-27 08:10:00,
2009-02-27 00:13:00,40.7,38.6,30.24,SSW,202,0.0,1.0,92,0.00,,,0.00,Wunderground v.1.15,2009-02-27 08:13:00,
2009-02-27 00:15:00,40.6,38.7,30.24,SSW,202,1.0,1.0,93,0.00,,,0.00,Wunderground v.1.15,2009-02-27 08:15:00,
2009-02-27 00:16:00,40.5,38.6,30.24,SSW,202,0.0,1.0,93,0.00,,,0.00,Wunderground v.1.15,2009-02-27 08:16:00,
2009-02-27 00:18:00,40.3,38.4,30.24,SSW,202,2.0,2.0,93,0.00,,,0.00,Wunderground v.1.15,2009-02-27 08:18:00,
2009-02-27 00:21:00,40.4,38.5,30.24,SSE,151,0.0,1.0,93,0.00,,,0.00,Wunderground v.1.15,2009-02-27 08:21:00,
2009-02-27 00:23:00,40.6,38.5,30.24,SSE,153,0.0,1.0,92,0.00,,,0.00,Wunderground v.1.15,2009-02-27 08:23:00,
2009-02-27 00:24:00,40.7,38.3,30.25,SSE,153,0.0,1.0,91,0.00,,,0.00,Wunderground v.1.15,2009-02-27 08:24:00,
2009-02-27 00:29:00,41.0,38.0,30.25,SSE,154,0.0,1.0,89,0.00,,,0.00,Wunderground v.1.15,2009-02-27 08:29:00,
2009-02-27 00:30:00,41.1,37.8,30.25,SSE,154,0.0,0.0,88,0.00,,,0.00,Wunderground v.1.15,2009-02-27 08:30:00,
2009-02-27 00:33:00,41.1,37.8,30.25,SSE,153,0.0,0.0,88,0.00,,,0.00,Wunderground v.1.15,2009-02-27 08:33:00,
2009-02-27 00:34:00,40.9,37.6,30.25,SSE,153,0.0,0.0,88,0.00,,,0.00,Wunderground v.1.15,2009-02-27 08:34:00,
2009-02-27 00:36:00,40.8,37.8,30.25,SSE,154,0.0,0.0,89,0.00,,,0.00,Wunderground v.1.15,2009-02-27 08:36:00,
2009-02-27 00:37:00,40.7,37.7,30.25,SSE,154,0.0,0.0,89,0.00,,,0.00,Wunderground v.1.15,2009-02-27 08:37:00,
2009-02-27 00:41:00,40.5,37.8,30.25,SSE,154,0.0,1.0,90,0.00,,,0.00,Wunderground v.1.15,2009-02-27 08:41:00,
2009-02-27 00:42:00,40.4,37.7,30.25,SSE,155,2.0,2.0,90,0.00,,,0.00,Wunderground v.1.15,2009-02-27 08:42:00,
2009-02-27 00:43:00,40.4,38.0,30.25,SSE,155,2.0,2.0,91,0.00,,,0.00,Wunderground v.1.15,2009-02-27 08:43:00,
2009-02-27 00:44:00,40.4,38.0,30.25,SSE,155,3.0,3.0,91,0.00,,,0.00,Wunderground v.1.15,2009-02-27 08:44:00,
2009-02-27 00:48:00,40.2,37.8,30.25,SSE,155,0.0,3.0,91,0.00,,,0.00,Wunderground v.1.15,2009-02-27 08:48:00,
2009-02-27 00:50:00,40.1,38.0,30.25,SSE,155,1.0,1.0,92,0.00,,,0.00,Wunderground v.1.15,2009-02-27 08:50:00,
2009-02-27 00:54:00,39.9,37.8,30.25,SSE,155,0.0,1.0,92,0.00,,,0.00,Wunderground v.1.15,2009-02-27 08:54:00,
2009-02-27 00:56:00,39.8,37.7,30.25,SSE,155,2.0,3.0,92,0.00,,,0.00,Wunderground v.1.15,2009-02-27 08:56:00,
2009-02-27 00:58:00,39.7,37.8,30.25,SSE,155,2.0,3.0,93,0.00,,,0.00,Wunderground v.1.15,2009-02-27 08:58:00,
2009-02-27 01:01:00,39.6,37.5,30.25,SSE,155,0.0,1.0,92,0.00,,,0.00,Wunderground v.1.15,2009-02-27 09:01:00,
2009-02-27 01:04:00,39.7,37.8,30.25,SSW,192,2.0,3.0,93,0.00,,,0.00,Wunderground v.1.15,2009-02-27 09:04:00,
2009-02-27 01:05:00,39.8,37.9,30.25,SSW,192,0.0,3.0,93,0.00,,,0.00,Wunderground v.1.15,2009-02-27 09:05:00,
2009-02-27 01:07:00,39.7,37.6,30.25,South,191,1.0,3.0,92,0.00,,,0.00,Wunderground v.1.15,2009-02-27 09:07:00,
2009-02-27 01:08:00,39.7,37.8,30.25,South,191,0.0,3.0,93,0.00,,,0.00,Wunderground v.1.15,2009-02-27 09:08:00,
2009-02-27 01:10:00,39.6,37.5,30.25,South,191,0.0,1.0,92,0.00,,,0.00,Wunderground v.1.15,2009-02-27 09:10:00,
2009-02-27 01:13:00,39.6,37.5,30.25,North,355,3.0,3.0,92,0.00,,,0.00,Wunderground v.1.15,2009-02-27 09:13:00,
2009-02-27 01:15:00,39.6,37.2,30.25,WNW,297,5.0,5.0,91,0.00,,,0.00,Wunderground v.1.15,2009-02-27 09:15:00,
2009-02-27 01:16:00,39.7,37.0,30.25,WNW,293,0.0,5.0,90,0.00,,,0.00,Wunderground v.1.15,2009-02-27 09:16:00,
2009-02-27 01:18:00,39.9,37.2,30.25,NW,323,4.0,5.0,90,0.00,,,0.00,Wunderground v.1.15,2009-02-27 09:18:00,
2009-02-27 01:19:00,40.0,37.0,30.25,NW,326,3.0,5.0,89,0.00,,,0.00,Wunderground v.1.15,2009-02-27 09:19:00,
2009-02-27 01:24:00,40.2,36.9,30.25,WNW,299,0.0,5.0,88,0.00,,,0.00,Wunderground v.1.15,2009-02-27 09:24:00,
2009-02-27 01:25:00,40.2,36.9,30.25,WNW,299,2.0,5.0,88,0.00,,,0.00,Wunderground v.1.15,2009-02-27 09:25:00,
2009-02-27 01:26:00,40.2,36.9,30.25,WNW,300,1.0,5.0,88,0.00,,,0.00,Wunderground v.1.15,2009-02-27 09:26:00,
2009-02-27 01:31:00,40.1,36.5,30.25,WNW,290,1.0,2.0,87,0.00,,,0.00,Wunderground v.1.15,2009-02-27 09:31:00,
2009-02-27 01:32:00,40.1,36.5,30.25,NNW,332,3.0,3.0,87,0.00,,,0.00,Wunderground v.1.15,2009-02-27 09:32:00,
2009-02-27 01:34:00,40.1,36.5,30.25,NNW,332,0.0,3.0,87,0.00,,,0.00,Wunderground v.1.15,2009-02-27 09:34:00,
2009-02-27 01:36:00,40.1,36.5,30.25,NNW,332,0.0,3.0,87,0.00,,,0.00,Wunderground v.1.15,2009-02-27 09:36:00,
2009-02-27 01:38:00,40.0,36.7,30.25,NNW,332,0.0,3.0,88,0.00,,,0.00,Wunderground v.1.15,2009-02-27 09:38:00,
2009-02-27 01:41:00,39.7,36.4,30.24,SW,224,1.0,3.0,88,0.00,,,0.00,Wunderground v.1.15,2009-02-27 09:41:00,
2009-02-27 01:43:00,39.7,36.7,30.24,SW,224,0.0,3.0,89,0.00,,,0.00,Wunderground v.1.15,2009-02-27 09:43:00,
2009-02-27 01:44:00,39.8,36.5,30.24,SW,224,0.0,3.0,88,0.00,,,0.00,Wunderground v.1.15,2009-02-27 09:44:00,
2009-02-27 01:47:00,39.9,36.6,30.24,SW,223,0.0,3.0,88,0.00,,,0.00,Wunderground v.1.15,2009-02-27 09:47:00,
2009-02-27 01:49:00,39.8,36.5,30.24,SW,224,0.0,3.0,88,0.00,,,0.00,Wunderground v.1.15,2009-02-27 09:49:00,
2009-02-27 01:51:00,39.7,36.4,30.24,SW,224,1.0,2.0,88,0.00,,,0.00,Wunderground v.1.15,2009-02-27 09:51:00,
2009-02-27 01:54:00,39.6,36.6,30.24,SW,224,2.0,3.0,89,0.00,,,0.00,Wunderground v.1.15,2009-02-27 09:54:00,
2009-02-27 01:55:00,39.5,36.5,30.24,SW,223,2.0,3.0,89,0.00,,,0.00,Wunderground v.1.15,2009-02-27 09:55:00,
2009-02-27 01:56:00,39.5,36.5,30.24,SW,223,3.0,3.0,89,0.00,,,0.00,Wunderground v.1.15,2009-02-27 09:56:00,
2009-02-27 01:58:00,39.5,36.5,30.24,SW,224,2.0,4.0,89,0.00,,,0.00,Wunderground v.1.15,2009-02-27 09:58:00,
2009-02-27 02:00:00,39.5,36.2,30.24,SSW,210,1.0,3.0,88,0.00,,,0.00,Wunderground v.1.15,2009-02-27 10:00:00,
2009-02-27 02:01:00,39.6,36.3,30.24,SSW,210,2.0,3.0,88,0.00,,,0.00,Wunderground v.1.15,2009-02-27 10:01:00,
2009-02-27 02:03:00,39.5,36.2,30.24,SSW,213,2.0,4.0,88,0.00,,,0.00,Wunderground v.1.15,2009-02-27 10:03:00,
2009-02-27 02:05:00,39.5,36.5,30.24,SW,214,3.0,4.0,89,0.00,,,0.00,Wunderground v.1.15,2009-02-27 10:05:00,
2009-02-27 02:06:00,39.4,36.4,30.24,SW,222,2.0,4.0,89,0.00,,,0.00,Wunderground v.1.15,2009-02-27 10:06:00,
2009-02-27 02:08:00,39.3,36.3,30.24,SSW,213,2.0,6.0,89,0.00,,,0.00,Wunderground v.1.15,2009-02-27 10:08:00,
2009-02-27 02:10:00,39.2,36.2,30.24,SW,215,2.0,3.0,89,0.00,,,0.00,Wunderground v.1.15,2009-02-27 10:10:00,
2009-02-27 02:11:00,39.1,36.1,30.24,SW,215,2.0,4.0,89,0.00,,,0.00,Wunderground v.1.15,2009-02-27 10:11:00,
2009-02-27 02:13:00,39.1,36.4,30.24,SW,216,3.0,5.0,90,0.00,,,0.00,Wunderground v.1.15,2009-02-27 10:13:00,
2009-02-27 02:16:00,39.0,36.3,30.24,SW,221,3.0,7.0,90,0.00,,,0.00,Wunderground v.1.15,2009-02-27 10:16:00,
2009-02-27 02:19:00,38.9,36.2,30.24,SW,221,3.0,7.0,90,0.00,,,0.00,Wunderground v.1.15,2009-02-27 10:19:00,
2009-02-27 02:21:00,38.9,36.2,30.24,SW,225,4.0,7.0,90,0.00,,,0.00,Wunderground v.1.15,2009-02-27 10:21:00,
2009-02-27 02:22:00,38.9,36.2,30.24,SSW,211,4.0,7.0,90,0.00,,,0.00,Wunderground v.1.15,2009-02-27 10:22:00,
2009-02-27 02:24:00,38.9,36.2,30.23,SW,219,5.0,7.0,90,0.00,,,0.00,Wunderground v.1.15,2009-02-27 10:24:00,
2009-02-27 02:26:00,38.8,36.1,30.23,SW,224,2.0,7.0,90,0.00,,,0.00,Wunderground v.1.15,2009-02-27 10:26:00,
2009-02-27 02:27:00,38.8,36.1,30.23,SW,224,3.0,7.0,90,0.00,,,0.00,Wunderground v.1.15,2009-02-27 10:27:00,
2009-02-27 02:29:00,38.7,36.3,30.23,SW,233,1.0,7.0,91,0.00,,,0.00,Wunderground v.1.15,2009-02-27 10:29:00,
2009-02-27 02:32:00,38.7,36.3,30.24,SW,227,4.0,5.0,91,0.00,,,0.00,Wunderground v.1.15,2009-02-27 10:32:00,
2009-02-27 02:34:00,38.7,36.3,30.23,SSW,209,7.0,7.0,91,0.00,,,0.00,Wunderground v.1.15,2009-02-27 10:34:00,
2009-02-27 02:37:00,38.7,36.3,30.23,SW,233,1.0,10.0,91,0.00,,,0.00,Wunderground v.1.15,2009-02-27 10:37:00,
2009-02-27 02:39:00,38.6,36.2,30.24,SW,214,7.0,10.0,91,0.00,,,0.00,Wunderground v.1.15,2009-02-27 10:39:00,
2009-02-27 02:42:00,38.6,36.2,30.24,SW,231,4.0,10.0,91,0.00,,,0.00,Wunderground v.1.15,2009-02-27 10:42:00,
2009-02-27 02:43:00,38.6,36.5,30.24,WSW,239,3.0,10.0,92,0.00,,,0.00,Wunderground v.1.15,2009-02-27 10:43:00,
2009-02-27 02:45:00,38.7,36.6,30.24,WSW,245,2.0,10.0,92,0.00,,,0.00,Wunderground v.1.15,2009-02-27 10:45:00,
2009-02-27 02:47:00,38.6,36.2,30.24,WSW,240,3.0,10.0,91,0.00,,,0.00,Wunderground v.1.15,2009-02-27 10:47:00,
2009-02-27 02:48:00,38.6,36.5,30.24,WSW,240,2.0,10.0,92,0.00,,,0.00,Wunderground v.1.15,2009-02-27 10:48:00,
2009-02-27 02:50:00,38.6,36.2,30.24,WSW,238,4.0,4.0,91,0.00,,,0.00,Wunderground v.1.15,2009-02-27 10:50:00,
2009-02-27 02:52:00,38.6,36.5,30.24,WSW,247,4.0,5.0,92,0.00,,,0.00,Wunderground v.1.15,2009-02-27 10:52:00,
2009-02-27 02:53:00,38.6,36.2,30.24,WSW,247,3.0,5.0,91,0.00,,,0.00,Wunderground v.1.15,2009-02-27 10:53:00,
2009-02-27 02:55:00,38.6,36.2,30.24,WSW,237,3.0,5.0,91,0.00,,,0.00,Wunderground v.1.15,2009-02-27 10:55:00,
2009-02-27 02:57:00,38.6,36.2,30.23,SW,215,7.0,7.0,91,0.00,,,0.00,Wunderground v.1.15,2009-02-27 10:57:00,
2009-02-27 02:58:00,38.6,36.2,30.23,WSW,238,4.0,7.0,91,0.00,,,0.00,Wunderground v.1.15,2009-02-27 10:58:00,
2009-02-27 03:00:00,38.6,36.2,30.24,SW,233,2.0,4.0,91,0.00,,,0.00,Wunderground v.1.15,2009-02-27 11:00:00,
2009-02-27 03:02:00,38.6,36.2,30.24,WSW,239,3.0,4.0,91,0.00,,,0.00,Wunderground v.1.15,2009-02-27 11:02:00,
2009-02-27 03:03:00,38.6,36.2,30.23,WSW,238,3.0,4.0,91,0.00,,,0.00,Wunderground v.1.15,2009-02-27 11:03:00,
2009-02-27 03:04:00,38.6,36.5,30.23,SW,227,2.0,5.0,92,0.00,,,0.00,Wunderground v.1.15,2009-02-27 11:04:00,
2009-02-27 03:05:00,38.6,36.2,30.23,SW,235,8.0,10.0,91,0.00,,,0.00,Wunderground v.1.15,2009-02-27 11:05:00,
2009-02-27 03:08:00,38.7,36.6,30.23,WSW,240,2.0,10.0,92,0.00,,,0.00,Wunderground v.1.15,2009-02-27 11:08:00,
2009-02-27 03:09:00,38.7,36.6,30.23,SW,230,4.0,10.0,92,0.00,,,0.00,Wunderground v.1.15,2009-02-27 11:09:00,
2009-02-27 03:11:00,38.7,36.6,30.23,SW,222,10.0,10.0,92,0.00,,,0.00,Wunderground v.1.15,2009-02-27 11:11:00,
2009-02-27 03:13:00,38.7,36.6,30.23,SW,236,3.0,10.0,92,0.00,,,0.00,Wunderground v.1.15,2009-02-27 11:13:00,
2009-02-27 03:14:00,38.7,36.6,30.23,WSW,243,4.0,10.0,92,0.00,,,0.00,Wunderground v.1.15,2009-02-27 11:14:00,
2009-02-27 03:16:00,38.7,36.6,30.23,WSW,247,4.0,10.0,92,0.00,,,0.00,Wunderground v.1.15,2009-02-27 11:16:00,
2009-02-27 03:18:00,38.6,36.2,30.23,WSW,245,3.0,10.0,91,0.00,,,0.00,Wunderground v.1.15,2009-02-27 11:18:00,
2009-02-27 03:19:00,38.5,36.1,30.23,WSW,251,4.0,10.0,91,0.00,,,0.00,Wunderground v.1.15,2009-02-27 11:19:00,
2009-02-27 03:21:00,38.4,36.3,30.23,SW,230,6.0,6.0,92,0.00,,,0.00,Wunderground v.1.15,2009-02-27 11:21:00,
2009-02-27 03:23:00,38.4,36.3,30.23,WSW,244,4.0,9.0,92,0.00,,,0.00,Wunderground v.1.15,2009-02-27 11:23:00,
2009-02-27 03:24:00,38.4,36.3,30.23,West,270,4.0,9.0,92,0.00,,,0.00,Wunderground v.1.15,2009-02-27 11:24:00,
2009-02-27 03:26:00,38.3,36.2,30.23,West,261,3.0,9.0,92,0.00,,,0.00,Wunderground v.1.15,2009-02-27 11:26:00,
2009-02-27 03:29:00,38.3,36.2,30.23,WSW,256,4.0,9.0,92,0.00,,,0.00,Wunderground v.1.15,2009-02-27 11:29:00,
2009-02-27 03:31:00,38.3,36.2,30.23,SW,233,4.0,6.0,92,0.00,,,0.00,Wunderground v.1.15,2009-02-27 11:31:00,
2009-02-27 03:34:00,38.3,36.2,30.23,WSW,257,5.0,11.0,92,0.00,,,0.00,Wunderground v.1.15,2009-02-27 11:34:00,
2009-02-27 03:35:00,38.3,36.2,30.23,SW,235,5.0,11.0,92,0.00,,,0.00,Wunderground v.1.15,2009-02-27 11:35:00,
2009-02-27 03:36:00,38.3,36.2,30.23,SW,224,3.0,11.0,92,0.00,,,0.00,Wunderground v.1.15,2009-02-27 11:36:00,
2009-02-27 03:39:00,38.4,36.3,30.23,WSW,254,3.0,11.0,92,0.00,,,0.00,Wunderground v.1.15,2009-02-27 11:39:00,
2009-02-27 03:40:00,38.4,36.3,30.23,WSW,249,3.0,4.0,92,0.00,,,0.00,Wunderground v.1.15,2009-02-27 11:40:00,
2009-02-27 03:41:00,38.3,36.2,30.23,West,267,3.0,5.0,92,0.00,,,0.00,Wunderground v.1.15,2009-02-27 11:41:00,
2009-02-27 03:44:00,38.3,36.2,30.23,WSW,242,4.0,6.0,92,0.00,,,0.00,Wunderground v.1.15,2009-02-27 11:44:00,
2009-02-27 03:45:00,38.3,36.5,30.23,WSW,241,3.0,6.0,93,0.00,,,0.00,Wunderground v.1.15,2009-02-27 11:45:00,
2009-02-27 03:46:00,38.3,36.5,30.23,WSW,246,2.0,6.0,93,0.00,,,0.00,Wunderground v.1.15,2009-02-27 11:46:00,
2009-02-27 03:50:00,38.3,36.5,30.23,WSW,244,3.0,4.0,93,0.00,,,0.00,Wunderground v.1.15,2009-02-27 11:50:00,
2009-02-27 03:52:00,38.3,36.5,30.23,SW,231,3.0,5.0,93,0.00,,,0.00,Wunderground v.1.15,2009-02-27 11:52:00,
2009-02-27 03:55:00,38.4,36.6,30.23,WSW,258,4.0,6.0,93,0.00,,,0.00,Wunderground v.1.15,2009-02-27 11:55:00,
2009-02-27 03:57:00,38.4,36.6,30.23,SW,232,4.0,6.0,93,0.00,,,0.00,Wunderground v.1.15,2009-02-27 11:57:00,
2009-02-27 04:00:00,38.6,37.0,30.23,WSW,242,3.0,4.0,94,0.00,,,0.00,Wunderground v.1.15,2009-02-27 12:00:00,
2009-02-27 04:01:00,38.6,37.0,30.23,WSW,242,3.0,4.0,94,0.00,,,0.00,Wunderground v.1.15,2009-02-27 12:01:00,
2009-02-27 04:02:00,38.6,37.0,30.23,WSW,242,3.0,4.0,94,0.00,,,0.00,Wunderground v.1.15,2009-02-27 12:02:00,
2009-02-27 04:05:00,38.6,37.0,30.23,WSW,250,2.0,4.0,94,0.00,,,0.00,Wunderground v.1.15,2009-02-27 12:05:00,
2009-02-27 04:06:00,38.6,37.0,30.23,WSW,251,3.0,4.0,94,0.00,,,0.00,Wunderground v.1.15,2009-02-27 12:06:00,
2009-02-27 04:07:00,38.6,37.0,30.24,SW,219,4.0,5.0,94,0.00,,,0.00,Wunderground v.1.15,2009-02-27 12:07:00,
2009-02-27 04:10:00,38.8,37.2,30.24,West,278,4.0,4.0,94,0.00,,,0.00,Wunderground v.1.15,2009-02-27 12:10:00,
2009-02-27 04:11:00,38.8,37.2,30.24,West,279,4.0,4.0,94,0.00,,,0.00,Wunderground v.1.15,2009-02-27 12:11:00,
2009-02-27 04:12:00,38.9,37.3,30.24,SW,234,4.0,5.0,94,0.00,,,0.00,Wunderground v.1.15,2009-02-27 12:12:00,
2009-02-27 04:15:00,39.0,37.4,30.24,West,270,3.0,6.0,94,0.00,,,0.00,Wunderground v.1.15,2009-02-27 12:15:00,
2009-02-27 04:16:00,39.0,37.4,30.24,West,270,2.0,6.0,94,0.00,,,0.00,Wunderground v.1.15,2009-02-27 12:16:00,
2009-02-27 04:17:00,39.0,37.4,30.24,SW,217,6.0,11.0,94,0.00,,,0.00,Wunderground v.1.15,2009-02-27 12:17:00,
2009-02-27 04:21:00,39.1,37.5,30.24,WSW,256,3.0,12.0,94,0.00,,,0.00,Wunderground v.1.15,2009-02-27 12:21:00,
2009-02-27 04:22:00,39.1,37.5,30.23,West,269,5.0,12.0,94,0.00,,,0.00,Wunderground v.1.15,2009-02-27 12:22:00,
2009-02-27 04:26:00,39.2,37.6,30.23,WSW,256,3.0,12.0,94,0.00,,,0.00,Wunderground v.1.15,2009-02-27 12:26:00,
2009-02-27 04:27:00,39.2,37.6,30.23,West,269,9.0,12.0,94,0.00,,,0.00,Wunderground v.1.15,2009-02-27 12:27:00,
2009-02-27 04:28:00,39.2,37.6,30.23,WSW,237,5.0,12.0,94,0.00,,,0.00,Wunderground v.1.15,2009-02-27 12:28:00,
2009-02-27 04:31:00,39.3,37.7,30.23,SW,218,6.0,7.0,94,0.00,,,0.00,Wunderground v.1.15,2009-02-27 12:31:00,
2009-02-27 04:32:00,39.3,37.7,30.23,WSW,249,2.0,10.0,94,0.00,,,0.00,Wunderground v.1.15,2009-02-27 12:32:00,
2009-02-27 04:33:00,39.3,37.7,30.23,NNW,341,7.0,10.0,94,0.00,,,0.00,Wunderground v.1.15,2009-02-27 12:33:00,
2009-02-27 04:36:00,39.3,37.7,30.23,NNW,346,4.0,13.0,94,0.00,,,0.00,Wunderground v.1.15,2009-02-27 12:36:00,
2009-02-27 04:37:00,39.3,37.7,30.23,WSW,240,2.0,13.0,94,0.00,,,0.00,Wunderground v.1.15,2009-02-27 12:37:00,
2009-02-27 04:39:00,39.3,37.7,30.23,WNW,283,6.0,14.0,94,0.00,,,0.00,Wunderground v.1.15,2009-02-27 12:39:00,
2009-02-27 04:41:00,39.4,37.8,30.23,WSW,256,1.0,10.0,94,0.00,,,0.00,Wunderground v.1.15,2009-02-27 12:41:00,
2009-02-27 04:42:00,39.4,37.8,30.23,WSW,248,6.0,10.0,94,0.00,,,0.00,Wunderground v.1.15,2009-02-27 12:42:00,
2009-02-27 04:43:00,39.4,37.8,30.23,NW,325,5.0,10.0,94,0.00,,,0.00,Wunderground v.1.15,2009-02-27 12:43:00,
2009-02-27 04:44:00,39.4,37.8,30.23,SW,233,5.0,10.0,94,0.00,,,0.00,Wunderground v.1.15,2009-02-27 12:44:00,
2009-02-27 04:46:00,39.5,37.9,30.23,WSW,244,4.0,10.0,94,0.00,,,0.00,Wunderground v.1.15,2009-02-27 12:46:00,
2009-02-27 04:47:00,39.4,37.8,30.23,West,277,5.0,10.0,94,0.00,,,0.00,Wunderground v.1.15,2009-02-27 12:47:00,
2009-02-27 04:48:00,39.5,37.9,30.23,SW,227,3.0,10.0,94,0.00,,,0.00,Wunderground v.1.15,2009-02-27 12:48:00,
2009-02-27 04:49:00,39.5,37.9,30.23,WSW,241,4.0,10.0,94,0.00,,,0.00,Wunderground v.1.15,2009-02-27 12:49:00,
2009-02-27 04:52:00,39.5,37.9,30.23,WNW,303,3.0,7.0,94,0.00,,,0.00,Wunderground v.1.15,2009-02-27 12:52:00,
2009-02-27 04:53:00,39.5,37.9,30.23,SW,215,3.0,7.0,94,0.00,,,0.00,Wunderground v.1.15,2009-02-27 12:53:00,
2009-02-27 04:54:00,39.5,37.9,30.23,SW,216,2.0,7.0,94,0.00,,,0.00,Wunderground v.1.15,2009-02-27 12:54:00,
2009-02-27 04:57:00,39.5,37.9,30.23,West,276,1.0,7.0,94,0.00,,,0.00,Wunderground v.1.15,2009-02-27 12:57:00,
2009-02-27 04:58:00,39.5,37.9,30.23,WNW,285,6.0,7.0,94,0.00,,,0.00,Wunderground v.1.15,2009-02-27 12:58:00,
2009-02-27 04:59:00,39.4,37.8,30.23,West,263,2.0,9.0,94,0.00,,,0.00,Wunderground v.1.15,2009-02-27 12:59:00,
2009-02-27 05:02:00,39.4,37.8,30.23,SW,234,3.0,5.0,94,0.00,,,0.00,Wunderground v.1.15,2009-02-27 13:02:00,
2009-02-27 05:04:00,39.4,37.8,30.23,WSW,248,2.0,5.0,94,0.00,,,0.00,Wunderground v.1.15,2009-02-27 13:04:00,
2009-02-27 05:07:00,39.3,37.7,30.23,WNW,287,3.0,10.0,94,0.00,,,0.00,Wunderground v.1.15,2009-02-27 13:07:00,
2009-02-27 05:09:00,39.3,37.7,30.23,West,267,3.0,10.0,94,0.00,,,0.00,Wunderground v.1.15,2009-02-27 13:09:00,
2009-02-27 05:12:00,39.3,37.7,30.24,West,268,3.0,6.0,94,0.00,,,0.00,Wunderground v.1.15,2009-02-27 13:12:00,
2009-02-27 05:14:00,39.3,37.7,30.24,SW,236,3.0,6.0,94,0.00,,,0.00,Wunderground v.1.15,2009-02-27 13:14:00,
2009-02-27 05:15:00,39.3,37.7,30.23,WNW,292,1.0,6.0,94,0.00,,,0.00,Wunderground v.1.15,2009-02-27 13:15:00,
2009-02-27 05:17:00,39.3,37.7,30.23,WSW,250,3.0,6.0,94,0.00,,,0.00,Wunderground v.1.15,2009-02-27 13:17:00,
2009-02-27 05:19:00,39.3,37.7,30.23,West,273,3.0,6.0,94,0.00,,,0.00,Wunderground v.1.15,2009-02-27 13:19:00,
2009-02-27 05:20:00,39.3,37.7,30.23,WSW,256,3.0,3.0,94,0.00,,,0.00,Wunderground v.1.15,2009-02-27 13:20:00,
2009-02-27 05:22:00,39.3,37.7,30.23,SW,234,3.0,10.0,94,0.00,,,0.00,Wunderground v.1.15,2009-02-27 13:22:00,
2009-02-27 05:24:00,39.2,37.6,30.24,WSW,240,2.0,10.0,94,0.00,,,0.00,Wunderground v.1.15,2009-02-27 13:24:00,
2009-02-27 05:25:00,39.2,37.6,30.23,WNW,298,4.0,10.0,94,0.00,,,0.00,Wunderground v.1.15,2009-02-27 13:25:00,
2009-02-27 05:27:00,39.2,37.6,30.24,SW,226,5.0,10.0,94,0.00,,,0.00,Wunderground v.1.15,2009-02-27 13:27:00,
2009-02-27 05:29:00,39.1,37.5,30.24,SW,227,1.0,10.0,94,0.00,,,0.00,Wunderground v.1.15,2009-02-27 13:29:00,
2009-02-27 05:30:00,39.1,37.5,30.24,WNW,284,5.0,9.0,94,0.00,,,0.00,Wunderground v.1.15,2009-02-27 13:30:00,
2009-02-27 05:33:00,39.1,37.5,30.24,WNW,296,5.0,9.0,94,0.00,,,0.00,Wunderground v.1.15,2009-02-27 13:33:00,
2009-02-27 05:35:00,39.1,37.5,30.24,West,281,2.0,9.0,94,0.00,,,0.00,Wunderground v.1.15,2009-02-27 13:35:00,
2009-02-27 05:36:00,39.1,37.5,30.24,WNW,300,2.0,9.0,94,0.00,,,0.00,Wunderground v.1.15,2009-02-27 13:36:00,
2009-02-27 05:38:00,39.1,37.5,30.24,West,272,1.0,9.0,94,0.00,,,0.00,Wunderground v.1.15,2009-02-27 13:38:00,
2009-02-27 05:40:00,39.1,37.5,30.24,West,272,0.0,3.0,94,0.00,,,0.00,Wunderground v.1.15,2009-02-27 13:40:00,
2009-02-27 05:41:00,39.1,37.5,30.24,West,272,2.0,3.0,94,0.00,,,0.00,Wunderground v.1.15,2009-02-27 13:41:00,
2009-02-27 05:43:00,39.1,37.5,30.24,WNW,287,3.0,5.0,94,0.00,,,0.00,Wunderground v.1.15,2009-02-27 13:43:00,
2009-02-27 05:45:00,39.0,37.4,30.24,WNW,294,1.0,5.0,94,0.00,,,0.00,Wunderground v.1.15,2009-02-27 13:45:00,
2009-02-27 05:46:00,39.1,37.5,30.24,SSW,207,3.0,5.0,94,0.00,,,0.00,Wunderground v.1.15,2009-02-27 13:46:00,
2009-02-27 05:48:00,39.1,37.5,30.24,WNW,294,2.0,5.0,94,0.00,,,0.00,Wunderground v.1.15,2009-02-27 13:48:00,
2009-02-27 05:50:00,39.1,37.5,30.24,WNW,294,0.0,2.0,94,0.00,,,0.00,Wunderground v.1.15,2009-02-27 13:50:00,
2009-02-27 05:51:00,39.1,37.5,30.24,WNW,294,1.0,3.0,94,0.00,,,0.00,Wunderground v.1.15,2009-02-27 13:51:00,
2009-02-27 05:54:00,39.1,37.2,30.24,WNW,292,0.0,3.0,93,0.00,,,0.00,Wunderground v.1.15,2009-02-27 13:54:00,
2009-02-27 05:55:00,39.2,37.3,30.24,WNW,292,0.0,3.0,93,0.00,,,0.00,Wunderground v.1.15,2009-02-27 13:55:00,
2009-02-27 05:56:00,39.2,37.3,30.24,WNW,292,3.0,3.0,93,0.00,,,0.00,Wunderground v.1.15,2009-02-27 13:56:00,
2009-02-27 05:57:00,39.2,37.3,30.24,WNW,292,2.0,3.0,93,0.00,,,0.00,Wunderground v.1.15,2009-02-27 13:57:00,
2009-02-27 05:59:00,39.1,37.2,30.24,WNW,291,1.0,3.0,93,0.00,,,0.00,Wunderground v.1.15,2009-02-27 13:59:00,
2009-02-27 06:01:00,39.2,37.3,30.24,WNW,288,3.0,3.0,93,0.00,,,0.00,Wunderground v.1.15,2009-02-27 14:01:00,
2009-02-27 06:02:00,39.2,37.3,30.24,NW,314,1.0,3.0,93,0.00,,,0.00,Wunderground v.1.15,2009-02-27 14:02:00,
2009-02-27 06:04:00,39.2,37.3,30.24,NW,304,0.0,4.0,93,0.00,,,0.00,Wunderground v.1.15,2009-02-27 14:04:00,
2009-02-27 06:06:00,39.2,37.3,30.24,NW,304,0.0,4.0,93,0.00,,,0.00,Wunderground v.1.15,2009-02-27 14:06:00,
2009-02-27 06:07:00,39.2,37.3,30.24,NW,305,0.0,4.0,93,0.00,,,0.00,Wunderground v.1.15,2009-02-27 14:07:00,
2009-02-27 06:10:00,39.2,37.3,30.25,West,276,4.0,4.0,93,0.00,,,0.00,Wunderground v.1.15,2009-02-27 14:10:00,
2009-02-27 06:11:00,39.2,37.3,30.25,WNW,296,3.0,6.0,93,0.00,,,0.00,Wunderground v.1.15,2009-02-27 14:11:00,
2009-02-27 06:12:00,39.3,37.4,30.25,West,262,0.0,6.0,93,0.00,,,0.00,Wunderground v.1.15,2009-02-27 14:12:00,
2009-02-27 06:15:00,39.3,37.4,30.25,WNW,300,3.0,6.0,93,0.00,,,0.00,Wunderground v.1.15,2009-02-27 14:15:00,
2009-02-27 06:17:00,39.3,37.4,30.25,WNW,300,3.0,6.0,93,0.00,,,0.00,Wunderground v.1.15,2009-02-27 14:17:00,
2009-02-27 06:18:00,39.3,37.4,30.24,WNW,300,0.0,6.0,93,0.00,,,0.00,Wunderground v.1.15,2009-02-27 14:18:00,
2009-02-27 06:20:00,39.3,37.4,30.25,WNW,300,0.0,2.0,93,0.00,,,0.00,Wunderground v.1.15,2009-02-27 14:20:00,
2009-02-27 06:22:00,39.3,37.4,30.25,WNW,299,3.0,4.0,93,0.00,,,0.00,Wunderground v.1.15,2009-02-27 14:22:00,
2009-02-27 06:23:00,39.3,37.4,30.25,WNW,299,1.0,4.0,93,0.00,,,0.00,Wunderground v.1.15,2009-02-27 14:23:00,
2009-02-27 06:25:00,39.3,37.4,30.25,WNW,299,0.0,4.0,93,0.00,,,0.00,Wunderground v.1.15,2009-02-27 14:25:00,
2009-02-27 06:27:00,39.3,37.4,30.25,WNW,300,1.0,4.0,93,0.00,,,0.00,Wunderground v.1.15,2009-02-27 14:27:00,
2009-02-27 06:28:00,39.3,37.4,30.25,WNW,300,1.0,4.0,93,0.00,,,0.00,Wunderground v.1.15,2009-02-27 14:28:00,
2009-02-27 06:29:00,39.3,37.4,30.25,WNW,300,1.0,4.0,93,0.00,,,0.00,Wunderground v.1.15,2009-02-27 14:29:00,
2009-02-27 06:30:00,39.3,37.4,30.25,WNW,299,0.0,1.0,93,0.00,,,0.00,Wunderground v.1.15,2009-02-27 14:30:00,
2009-02-27 06:32:00,39.3,37.4,30.25,WNW,289,0.0,1.0,93,0.00,,,0.00,Wunderground v.1.15,2009-02-27 14:32:00,
2009-02-27 06:33:00,39.3,37.4,30.25,WNW,289,3.0,3.0,93,0.00,,,0.00,Wunderground v.1.15,2009-02-27 14:33:00,
2009-02-27 06:34:00,39.3,37.4,30.25,WNW,288,0.0,3.0,93,0.00,,,0.00,Wunderground v.1.15,2009-02-27 14:34:00,
2009-02-27 06:35:00,39.3,37.4,30.25,WNW,289,0.0,3.0,93,0.00,,,0.00,Wunderground v.1.15,2009-02-27 14:35:00,
2009-02-27 06:37:00,39.3,37.4,30.25,WNW,290,3.0,3.0,93,0.00,,,0.00,Wunderground v.1.15,2009-02-27 14:37:00,
2009-02-27 06:38:00,39.3,37.4,30.25,WNW,300,2.0,5.0,93,0.00,,,0.00,Wunderground v.1.15,2009-02-27 14:38:00,
2009-02-27 06:39:00,39.3,37.4,30.25,WNW,300,2.0,5.0,93,0.00,,,0.00,Wunderground v.1.15,2009-02-27 14:39:00,
2009-02-27 06:40:00,39.3,37.4,30.25,WNW,300,0.0,1.0,93,0.00,,,0.00,Wunderground v.1.15,2009-02-27 14:40:00,
2009-02-27 06:42:00,39.4,37.5,30.25,WNW,300,0.0,1.0,93,0.00,,,0.00,Wunderground v.1.15,2009-02-27 14:42:00,
2009-02-27 06:43:00,39.4,37.5,30.25,WNW,300,0.0,2.0,93,0.00,,,0.00,Wunderground v.1.15,2009-02-27 14:43:00,
2009-02-27 06:44:00,39.4,37.5,30.25,SW,219,0.0,2.0,93,0.00,,,0.00,Wunderground v.1.15,2009-02-27 14:44:00,
2009-02-27 06:45:00,39.4,37.5,30.25,West,280,3.0,4.0,93,0.00,,,0.00,Wunderground v.1.15,2009-02-27 14:45:00,
2009-02-27 06:47:00,39.4,37.3,30.25,West,280,2.0,4.0,92,0.00,,,0.00,Wunderground v.1.15,2009-02-27 14:47:00,
2009-02-27 06:48:00,39.4,37.3,30.25,WNW,302,2.0,4.0,92,0.00,,,0.00,Wunderground v.1.15,2009-02-27 14:48:00,
2009-02-27 06:49:00,39.4,37.3,30.25,NW,313,4.0,4.0,92,0.00,,,0.00,Wunderground v.1.15,2009-02-27 14:49:00,
2009-02-27 06:51:00,39.4,37.3,30.25,NW,311,0.0,5.0,92,0.00,,,0.00,Wunderground v.1.15,2009-02-27 14:51:00,
2009-02-27 06:52:00,39.4,37.3,30.25,NW,311,0.0,5.0,92,0.00,,,0.00,Wunderground v.1.15,2009-02-27 14:52:00,
2009-02-27 06:54:00,39.4,37.3,30.25,NW,311,0.0,5.0,92,0.00,,,0.00,Wunderground v.1.15,2009-02-27 14:54:00,
2009-02-27 06:55:00,39.4,37.3,30.25,NW,311,0.0,5.0,92,0.00,,,0.00,Wunderground v.1.15,2009-02-27 14:55:00,
2009-02-27 06:56:00,39.4,37.3,30.25,NW,311,0.0,5.0,92,0.00,,,0.00,Wunderground v.1.15,2009-02-27 14:56:00,
2009-02-27 06:57:00,39.4,37.3,30.25,NW,311,2.0,5.0,92,0.00,,,0.00,Wunderground v.1.15,2009-02-27 14:57:00,
2009-02-27 06:59:00,39.4,37.3,30.25,NW,323,0.0,5.0,92,0.00,,,0.00,Wunderground v.1.15,2009-02-27 14:59:00,
2009-02-27 07:01:00,39.4,37.3,30.25,NW,322,2.0,2.0,92,0.00,,,0.00,Wunderground v.1.15,2009-02-27 15:01:00,
2009-02-27 07:02:00,39.4,37.3,30.25,NNW,338,2.0,5.0,92,0.00,,,0.00,Wunderground v.1.15,2009-02-27 15:02:00,
2009-02-27 07:04:00,39.4,37.3,30.25,West,277,5.0,6.0,92,0.00,,,0.00,Wunderground v.1.15,2009-02-27 15:04:00,
2009-02-27 07:06:00,39.4,37.3,30.25,West,281,3.0,6.0,92,0.00,,,0.00,Wunderground v.1.15,2009-02-27 15:06:00,
2009-02-27 07:07:00,39.4,37.3,30.25,WNW,282,0.0,6.0,92,0.00,,,0.00,Wunderground v.1.15,2009-02-27 15:07:00,
2009-02-27 07:09:00,39.5,37.4,30.25,WNW,282,1.0,6.0,92,0.00,,,0.00,Wunderground v.1.15,2009-02-27 15:09:00,
2009-02-27 07:11:00,39.4,37.3,30.25,West,281,0.0,3.0,92,0.00,,,0.00,Wunderground v.1.15,2009-02-27 15:11:00,
2009-02-27 07:12:00,39.4,37.3,30.25,WNW,282,1.0,3.0,92,0.00,,,0.00,Wunderground v.1.15,2009-02-27 15:12:00,
2009-02-27 07:14:00,39.4,37.3,30.25,WNW,282,0.0,3.0,92,0.00,,,0.00,Wunderground v.1.15,2009-02-27 15:14:00,
2009-02-27 07:17:00,39.4,37.3,30.25,WNW,282,0.0,3.0,92,0.00,,,0.00,Wunderground v.1.15,2009-02-27 15:17:00,
2009-02-27 07:18:00,39.4,37.3,30.25,WNW,282,0.0,3.0,92,0.00,,,0.00,Wunderground v.1.15,2009-02-27 15:18:00,
2009-02-27 07:20:00,39.4,37.3,30.25,WNW,300,2.0,2.0,92,0.00,,,0.00,Wunderground v.1.15,2009-02-27 15:20:00,
2009-02-27 07:22:00,39.4,37.3,30.25,NNE,26,1.0,5.0,92,0.00,,,0.00,Wunderground v.1.15,2009-02-27 15:22:00,
2009-02-27 07:23:00,39.4,37.3,30.26,North,360,5.0,5.0,92,0.00,,,0.00,Wunderground v.1.15,2009-02-27 15:23:00,
2009-02-27 07:25:00,39.4,37.3,30.26,WNW,288,3.0,5.0,92,0.00,,,0.00,Wunderground v.1.15,2009-02-27 15:25:00,
2009-02-27 07:27:00,39.4,37.3,30.26,NW,306,2.0,5.0,92,0.00,,,0.00,Wunderground v.1.15,2009-02-27 15:27:00,
2009-02-27 07:29:00,39.5,37.1,30.25,WSW,241,1.0,5.0,91,0.00,,,0.00,Wunderground v.1.15,2009-02-27 15:29:00,
2009-02-27 07:31:00,39.5,37.1,30.25,WSW,242,0.0,2.0,91,0.00,,,0.00,Wunderground v.1.15,2009-02-27 15:31:00,
2009-02-27 07:32:00,39.5,37.1,30.26,WSW,242,0.0,2.0,91,0.00,,,0.00,Wunderground v.1.15,2009-02-27 15:32:00,
2009-02-27 07:34:00,39.6,37.2,30.26,North,350,3.0,5.0,91,0.00,,,0.00,Wunderground v.1.15,2009-02-27 15:34:00,
2009-02-27 07:36:00,39.6,37.2,30.26,NW,309,2.0,5.0,91,0.00,,,0.00,Wunderground v.1.15,2009-02-27 15:36:00,
2009-02-27 07:37:00,39.7,37.3,30.26,NW,319,3.0,5.0,91,0.00,,,0.00,Wunderground v.1.15,2009-02-27 15:37:00,
2009-02-27 07:40:00,39.7,37.3,30.25,WNW,287,0.0,1.0,91,0.00,,,0.00,Wunderground v.1.15,2009-02-27 15:40:00,
2009-02-27 07:42:00,39.8,37.7,30.25,WNW,287,1.0,1.0,92,0.00,,,0.00,Wunderground v.1.15,2009-02-27 15:42:00,
2009-02-27 07:43:00,39.8,37.7,30.25,West,276,0.0,3.0,92,0.00,,,0.00,Wunderground v.1.15,2009-02-27 15:43:00,
2009-02-27 07:45:00,39.8,37.4,30.26,West,279,2.0,3.0,91,0.00,,,0.00,Wunderground v.1.15,2009-02-27 15:45:00,
2009-02-27 07:47:00,39.8,37.4,30.26,West,279,2.0,3.0,91,0.00,,,0.00,Wunderground v.1.15,2009-02-27 15:47:00,
2009-02-27 07:48:00,39.8,37.7,30.26,WNW,290,1.0,4.0,92,0.00,,,0.00,Wunderground v.1.15,2009-02-27 15:48:00,
2009-02-27 07:50:00,39.9,37.8,30.26,WNW,290,0.0,1.0,92,0.00,,,0.00,Wunderground v.1.15,2009-02-27 15:50:00,
2009-02-27 07:52:00,39.9,37.5,30.26,WNW,293,2.0,5.0,91,0.00,,,0.00,Wunderground v.1.15,2009-02-27 15:52:00,
2009-02-27 07:53:00,39.9,37.5,30.26,WNW,292,1.0,5.0,91,0.00,,,0.00,Wunderground v.1.15,2009-02-27 15:53:00,
2009-02-27 07:55:00,39.9,37.5,30.26,WNW,292,2.0,5.0,91,0.00,,,0.00,Wunderground v.1.15,2009-02-27 15:55:00,
2009-02-27 07:57:00,40.0,37.9,30.26,WNW,293,0.0,5.0,92,0.00,,,0.00,Wunderground v.1.15,2009-02-27 15:57:00,
2009-02-27 07:58:00,40.0,37.9,30.26,WNW,292,0.0,5.0,92,0.00,,,0.00,Wunderground v.1.15,2009-02-27 15:58:00,
2009-02-27 08:00:00,40.0,37.6,30.26,WNW,292,0.0,1.0,91,0.00,,,0.00,Wunderground v.1.15,2009-02-27 16:00:00,
2009-02-27 08:02:00,40.1,38.0,30.26,WNW,293,3.0,4.0,92,0.00,,,0.00,Wunderground v.1.15,2009-02-27 16:02:00,
2009-02-27 08:03:00,40.1,38.0,30.26,WNW,291,2.0,4.0,92,0.00,,,0.00,Wunderground v.1.15,2009-02-27 16:03:00,
2009-02-27 08:04:00,40.2,38.1,30.26,WNW,300,3.0,4.0,92,0.00,,,0.00,Wunderground v.1.15,2009-02-27 16:04:00,
2009-02-27 08:05:00,40.1,37.7,30.26,WNW,299,2.0,4.0,91,0.00,,,0.00,Wunderground v.1.15,2009-02-27 16:05:00,
2009-02-27 08:08:00,40.1,37.7,30.26,WNW,300,0.0,4.0,91,0.00,,,0.00,Wunderground v.1.15,2009-02-27 16:08:00,
2009-02-27 08:09:00,40.2,38.1,30.26,WNW,299,1.0,4.0,92,0.00,,,0.00,Wunderground v.1.15,2009-02-27 16:09:00,
2009-02-27 08:10:00,40.3,38.2,30.26,WNW,302,3.0,3.0,92,0.00,,,0.00,Wunderground v.1.15,2009-02-27 16:10:00,
2009-02-27 08:13:00,40.3,37.9,30.26,WNW,302,3.0,4.0,91,0.00,,,0.00,Wunderground v.1.15,2009-02-27 16:13:00,
2009-02-27 08:14:00,40.3,37.9,30.26,WNW,287,2.0,4.0,91,0.00,,,0.00,Wunderground v.1.15,2009-02-27 16:14:00,
2009-02-27 08:15:00,40.3,37.9,30.26,WNW,287,3.0,4.0,91,0.00,,,0.00,Wunderground v.1.15,2009-02-27 16:15:00,
2009-02-27 08:16:00,40.3,37.9,30.26,NW,307,2.0,5.0,91,0.00,,,0.00,Wunderground v.1.15,2009-02-27 16:16:00,
2009-02-27 08:18:00,40.3,37.9,30.26,NW,307,0.0,5.0,91,0.00,,,0.00,Wunderground v.1.15,2009-02-27 16:18:00,
2009-02-27 08:19:00,40.2,37.8,30.26,NW,307,0.0,5.0,91,0.00,,,0.00,Wunderground v.1.15,2009-02-27 16:19:00,
2009-02-27 08:20:00,40.2,37.8,30.26,NW,307,0.0,1.0,91,0.00,,,0.00,Wunderground v.1.15,2009-02-27 16:20:00,
2009-02-27 08:21:00,40.2,37.8,30.26,NW,307,0.0,1.0,91,0.00,,,0.00,Wunderground v.1.15,2009-02-27 16:21:00,
2009-02-27 08:24:00,40.2,37.8,30.25,NW,307,1.0,1.0,91,0.00,,,0.00,Wunderground v.1.15,2009-02-27 16:24:00,
2009-02-27 08:25:00,40.2,37.8,30.25,NW,307,0.0,3.0,91,0.00,,,0.00,Wunderground v.1.15,2009-02-27 16:25:00,
2009-02-27 08:26:00,40.3,37.9,30.25,WNW,290,3.0,5.0,91,0.00,,,0.00,Wunderground v.1.15,2009-02-27 16:26:00,
2009-02-27 08:29:00,40.3,37.9,30.25,WNW,292,0.0,5.0,91,0.00,,,0.00,Wunderground v.1.15,2009-02-27 16:29:00,
2009-02-27 08:30:00,40.3,37.9,30.25,WNW,291,3.0,3.0,91,0.00,,,0.00,Wunderground v.1.15,2009-02-27 16:30:00,
2009-02-27 08:31:00,40.3,37.9,30.25,WNW,294,1.0,3.0,91,0.00,,,0.00,Wunderground v.1.15,2009-02-27 16:31:00,
2009-02-27 08:34:00,40.4,38.0,30.25,NNW,337,0.0,4.0,91,0.00,,,0.00,Wunderground v.1.15,2009-02-27 16:34:00,
2009-02-27 08:35:00,40.4,38.0,30.25,NW,305,3.0,6.0,91,0.00,,,0.00,Wunderground v.1.15,2009-02-27 16:35:00,
2009-02-27 08:37:00,40.5,38.1,30.25,WNW,290,4.0,8.0,91,0.00,,,0.00,Wunderground v.1.15,2009-02-27 16:37:00,
2009-02-27 08:39:00,40.4,37.7,30.26,NW,325,2.0,8.0,90,0.00,,,0.00,Wunderground v.1.15,2009-02-27 16:39:00,
2009-02-27 08:40:00,40.4,37.7,30.26,WNW,303,5.0,5.0,90,0.00,,,0.00,Wunderground v.1.15,2009-02-27 16:40:00,
2009-02-27 08:42:00,40.4,37.7,30.25,NW,311,2.0,6.0,90,0.00,,,0.00,Wunderground v.1.15,2009-02-27 16:42:00,
2009-02-27 08:44:00,40.4,38.0,30.25,WNW,292,2.0,6.0,91,0.00,,,0.00,Wunderground v.1.15,2009-02-27 16:44:00,
2009-02-27 08:45:00,40.4,38.0,30.25,WNW,292,0.0,6.0,91,0.00,,,0.00,Wunderground v.1.15,2009-02-27 16:45:00,
2009-02-27 08:46:00,40.5,38.1,30.25,WNW,291,0.0,6.0,91,0.00,,,0.00,Wunderground v.1.15,2009-02-27 16:46:00,
2009-02-27 08:47:00,40.5,38.1,30.26,WNW,292,1.0,6.0,91,0.00,,,0.00,Wunderground v.1.15,2009-02-27 16:47:00,
2009-02-27 08:49:00,40.4,37.7,30.26,ENE,67,0.0,6.0,90,0.00,,,0.00,Wunderground v.1.15,2009-02-27 16:49:00,
2009-02-27 08:50:00,40.3,37.6,30.26,ENE,67,0.0,2.0,90,0.00,,,0.00,Wunderground v.1.15,2009-02-27 16:50:00,
2009-02-27 08:51:00,40.4,38.0,30.26,ENE,67,0.0,2.0,91,0.00,,,0.00,Wunderground v.1.15,2009-02-27 16:51:00,
2009-02-27 08:52:00,40.4,38.0,30.25,NW,318,2.0,5.0,91,0.00,,,0.00,Wunderground v.1.15,2009-02-27 16:52:00,
2009-02-27 08:55:00,40.4,38.0,30.25,NNW,333,0.0,5.0,91,0.00,,,0.00,Wunderground v.1.15,2009-02-27 16:55:00,
2009-02-27 08:56:00,40.4,37.7,30.25,NNW,333,0.0,5.0,90,0.00,,,0.00,Wunderground v.1.15,2009-02-27 16:56:00,
2009-02-27 08:57:00,40.4,38.0,30.26,WNW,299,2.0,5.0,91,0.00,,,0.00,Wunderground v.1.15,2009-02-27 16:57:00,
2009-02-27 09:00:00,40.4,38.0,30.25,WNW,302,3.0,3.0,91,0.00,,,0.00,Wunderground v.1.15,2009-02-27 17:00:00,
2009-02-27 09:01:00,40.5,38.1,30.25,WNW,302,0.0,3.0,91,0.00,,,0.00,Wunderground v.1.15,2009-02-27 17:01:00,
2009-02-27 09:03:00,40.9,38.8,30.25,NW,312,3.0,5.0,92,0.00,,,0.00,Wunderground v.1.15,2009-02-27 17:03:00,
2009-02-27 09:05:00,41.1,39.0,30.25,NW,311,6.0,8.0,92,0.00,,,0.00,Wunderground v.1.15,2009-02-27 17:05:00,
2009-02-27 09:06:00,41.0,38.3,30.26,NNW,344,0.0,8.0,90,0.00,,,0.00,Wunderground v.1.15,2009-02-27 17:06:00,
2009-02-27 09:08:00,41.0,38.6,30.26,WNW,291,2.0,8.0,91,0.00,,,0.00,Wunderground v.1.15,2009-02-27 17:08:00,
2009-02-27 09:10:00,41.0,38.6,30.26,North,355,2.0,4.0,91,0.00,,,0.00,Wunderground v.1.15,2009-02-27 17:10:00,
2009-02-27 09:11:00,41.1,38.7,30.25,NW,319,2.0,5.0,91,0.00,,,0.00,Wunderground v.1.15,2009-02-27 17:11:00,
2009-02-27 09:12:00,41.1,38.7,30.25,NW,319,1.0,5.0,91,0.00,,,0.00,Wunderground v.1.15,2009-02-27 17:12:00,
2009-02-27 09:13:00,41.0,38.3,30.26,NW,322,2.0,5.0,90,0.00,,,0.00,Wunderground v.1.15,2009-02-27 17:13:00,
2009-02-27 09:15:00,40.6,37.9,30.25,NW,321,0.0,5.0,90,0.00,,,0.00,Wunderground v.1.15,2009-02-27 17:15:00,
2009-02-27 09:17:00,40.6,37.9,30.25,NW,321,0.0,5.0,90,0.00,,,0.00,Wunderground v.1.15,2009-02-27 17:17:00,
2009-02-27 09:18:00,40.6,37.9,30.25,North,355,5.0,5.0,90,0.00,,,0.00,Wunderground v.1.15,2009-02-27 17:18:00,
2009-02-27 09:20:00,40.5,37.8,30.25,NW,315,3.0,4.0,90,0.00,,,0.00,Wunderground v.1.15,2009-02-27 17:20:00,
2009-02-27 09:22:00,40.4,37.7,30.25,NW,314,4.0,6.0,90,0.00,,,0.00,Wunderground v.1.15,2009-02-27 17:22:00,
2009-02-27 09:23:00,40.3,37.6,30.25,NNW,336,2.0,6.0,90,0.00,,,0.00,Wunderground v.1.15,2009-02-27 17:23:00,
2009-02-27 09:25:00,40.2,37.5,30.25,NNW,336,0.0,6.0,90,0.00,,,0.00,Wunderground v.1.15,2009-02-27 17:25:00,
2009-02-27 09:27:00,40.2,37.2,30.24,NNW,336,1.0,6.0,89,0.00,,,0.00,Wunderground v.1.15,2009-02-27 17:27:00,
2009-02-27 09:28:00,40.2,37.2,30.24,North,360,0.0,6.0,89,0.00,,,0.00,Wunderground v.1.15,2009-02-27 17:28:00,
2009-02-27 09:30:00,40.4,37.4,30.24,WNW,290,1.0,5.0,89,0.00,,,0.00,Wunderground v.1.15,2009-02-27 17:30:00,
2009-02-27 09:32:00,40.6,37.6,30.24,WNW,290,0.0,5.0,89,0.00,,,0.00,Wunderground v.1.15,2009-02-27 17:32:00,
2009-02-27 09:33:00,40.6,37.3,30.24,WNW,291,1.0,5.0,88,0.00,,,0.00,Wunderground v.1.15,2009-02-27 17:33:00,
2009-02-27 09:36:00,40.6,37.3,30.24,NE,48,1.0,5.0,88,0.00,,,0.00,Wunderground v.1.15,2009-02-27 17:36:00,
2009-02-27 09:37:00,40.9,37.9,30.24,NNE,28,2.0,5.0,89,0.00,,,0.00,Wunderground v.1.15,2009-02-27 17:37:00,
2009-02-27 09:38:00,41.1,37.8,30.24,NNE,33,2.0,5.0,88,0.00,,,0.00,Wunderground v.1.15,2009-02-27 17:38:00,
2009-02-27 09:41:00,41.4,38.1,30.24,NW,321,3.0,5.0,88,0.00,,,0.00,Wunderground v.1.15,2009-02-27 17:41:00,
2009-02-27 09:42:00,41.4,37.8,30.24,NW,322,4.0,5.0,87,0.00,,,0.00,Wunderground v.1.15,2009-02-27 17:42:00,
2009-02-27 09:43:00,41.5,38.2,30.24,North,355,3.0,5.0,88,0.00,,,0.00,Wunderground v.1.15,2009-02-27 17:43:00,
2009-02-27 09:47:00,41.7,38.1,30.24,NW,313,0.0,6.0,87,0.00,,,0.00,Wunderground v.1.15,2009-02-27 17:47:00,
2009-02-27 09:48:00,41.7,38.4,30.24,NW,313,0.0,6.0,88,0.00,,,0.00,Wunderground v.1.15,2009-02-27 17:48:00,
2009-02-27 09:49:00,41.8,38.5,30.23,NW,319,1.0,6.0,88,0.00,,,0.00,Wunderground v.1.15,2009-02-27 17:49:00,
2009-02-27 09:52:00,42.6,39.6,30.23,ENE,73,5.0,5.0,89,0.00,,,0.00,Wunderground v.1.15,2009-02-27 17:52:00,
2009-02-27 09:53:00,42.7,39.4,30.23,ENE,69,3.0,6.0,88,0.00,,,0.00,Wunderground v.1.15,2009-02-27 17:53:00,
2009-02-27 09:54:00,42.6,39.0,30.23,ENE,71,2.0,6.0,87,0.00,,,0.00,Wunderground v.1.15,2009-02-27 17:54:00,
2009-02-27 09:57:00,42.5,39.2,30.23,East,88,2.0,6.0,88,0.00,,,0.00,Wunderground v.1.15,2009-02-27 17:57:00,
2009-02-27 09:58:00,42.6,39.6,30.23,ENE,62,2.0,6.0,89,0.00,,,0.00,Wunderground v.1.15,2009-02-27 17:58:00,
2009-02-27 09:59:00,42.7,39.7,30.23,ENE,62,1.0,6.0,89,0.00,,,0.00,Wunderground v.1.15,2009-02-27 17:59:00,
2009-02-27 10:00:00,43.0,40.0,30.23,ENE,61,2.0,3.0,89,0.00,,,0.00,Wunderground v.1.15,2009-02-27 18:00:00,
2009-02-27 10:02:00,42.9,39.3,30.23,NE,48,3.0,6.0,87,0.00,,,0.00,Wunderground v.1.15,2009-02-27 18:02:00,
2009-02-27 10:03:00,42.7,38.8,30.23,NE,48,2.0,6.0,86,0.00,,,0.00,Wunderground v.1.15,2009-02-27 18:03:00,
2009-02-27 10:04:00,42.7,38.8,30.23,NE,48,2.0,6.0,86,0.00,,,0.00,Wunderground v.1.15,2009-02-27 18:04:00,
2009-02-27 10:05:00,42.7,39.1,30.23,NNE,18,1.0,6.0,87,0.00,,,0.00,Wunderground v.1.15,2009-02-27 18:05:00,
2009-02-27 10:08:00,42.6,38.7,30.24,ENE,66,2.0,7.0,86,0.00,,,0.00,Wunderground v.1.15,2009-02-27 18:08:00,
2009-02-27 10:09:00,42.7,39.1,30.24,ENE,66,1.0,7.0,87,0.00,,,0.00,Wunderground v.1.15,2009-02-27 18:09:00,
2009-02-27 10:10:00,42.7,39.1,30.24,ENE,66,2.0,3.0,87,0.00,,,0.00,Wunderground v.1.15,2009-02-27 18:10:00,
2009-02-27 10:14:00,42.7,39.1,30.24,ENE,65,0.0,3.0,87,0.00,,,0.00,Wunderground v.1.15,2009-02-27 18:14:00,
2009-02-27 10:15:00,42.7,38.8,30.24,ENE,65,1.0,3.0,86,0.00,,,0.00,Wunderground v.1.15,2009-02-27 18:15:00,
2009-02-27 10:19:00,42.5,38.3,30.24,ENE,64,4.0,4.0,85,0.00,,,0.00,Wunderground v.1.15,2009-02-27 18:19:00,
2009-02-27 10:20:00,42.5,38.3,30.24,ENE,65,0.0,2.0,85,0.00,,,0.00,Wunderground v.1.15,2009-02-27 18:20:00,
2009-02-27 10:24:00,42.8,38.9,30.23,ENE,65,1.0,3.0,86,0.00,,,0.00,Wunderground v.1.15,2009-02-27 18:24:00,
2009-02-27 10:26:00,43.1,39.2,30.23,ENE,64,1.0,3.0,86,0.00,,,0.00,Wunderground v.1.15,2009-02-27 18:26:00,
2009-02-27 10:29:00,43.7,39.5,30.23,ENE,71,2.0,4.0,85,0.00,,,0.00,Wunderground v.1.15,2009-02-27 18:29:00,
2009-02-27 10:30:00,43.8,39.9,30.23,ENE,68,0.0,1.0,86,0.00,,,0.00,Wunderground v.1.15,2009-02-27 18:30:00,
2009-02-27 10:31:00,44.0,40.1,30.23,ENE,68,0.0,1.0,86,0.00,,,0.00,Wunderground v.1.15,2009-02-27 18:31:00,
2009-02-27 10:35:00,44.1,39.6,30.23,ENE,61,0.0,4.0,84,0.00,,,0.00,Wunderground v.1.15,2009-02-27 18:35:00,
2009-02-27 10:36:00,44.0,39.8,30.23,ENE,61,1.0,4.0,85,0.00,,,0.00,Wunderground v.1.15,2009-02-27 18:36:00,
2009-02-27 10:40:00,43.9,39.4,30.23,NE,55,0.0,1.0,84,0.00,,,0.00,Wunderground v.1.15,2009-02-27 18:40:00,
2009-02-27 10:41:00,44.0,39.5,30.23,NE,55,1.0,2.0,84,0.00,,,0.00,Wunderground v.1.15,2009-02-27 18:41:00,
2009-02-27 10:45:00,44.1,39.6,30.23,ENE,73,2.0,5.0,84,0.00,,,0.00,Wunderground v.1.15,2009-02-27 18:45:00,
2009-02-27 10:46:00,44.0,39.2,30.23,ENE,73,1.0,5.0,83,0.00,,,0.00,Wunderground v.1.15,2009-02-27 18:46:00,
2009-02-27 10:47:00,43.7,38.9,30.23,ENE,72,0.0,5.0,83,0.00,,,0.00,Wunderground v.1.15,2009-02-27 18:47:00,
2009-02-27 10:50:00,44.1,39.6,30.23,ENE,72,1.0,3.0,84,0.00,,,0.00,Wunderground v.1.15,2009-02-27 18:50:00,
2009-02-27 10:51:00,44.1,39.3,30.23,ENE,72,0.0,3.0,83,0.00,,,0.00,Wunderground v.1.15,2009-02-27 18:51:00,
2009-02-27 10:52:00,44.2,39.1,30.23,ENE,70,0.0,3.0,82,0.00,,,0.00,Wunderground v.1.15,2009-02-27 18:52:00,
2009-02-27 10:55:00,44.0,39.2,30.23,ENE,70,2.0,3.0,83,0.00,,,0.00,Wunderground v.1.15,2009-02-27 18:55:00,
2009-02-27 10:56:00,43.9,39.1,30.23,ENE,70,0.0,3.0,83,0.00,,,0.00,Wunderground v.1.15,2009-02-27 18:56:00,
2009-02-27 10:57:00,43.8,39.0,30.23,ENE,70,2.0,3.0,83,0.00,,,0.00,Wunderground v.1.15,2009-02-27 18:57:00,
2009-02-27 11:01:00,44.4,39.9,30.23,ENE,70,0.0,1.0,84,0.00,,,0.00,Wunderground v.1.15,2009-02-27 19:01:00,
2009-02-27 11:02:00,45.0,40.5,30.23,ENE,70,0.0,1.0,84,0.00,,,0.00,Wunderground v.1.15,2009-02-27 19:02:00,
2009-02-27 11:06:00,45.4,39.9,30.23,ENE,69,1.0,2.0,81,0.00,,,0.00,Wunderground v.1.15,2009-02-27 19:06:00,
2009-02-27 11:07:00,45.2,39.4,30.24,NW,318,0.0,4.0,80,0.00,,,0.00,Wunderground v.1.15,2009-02-27 19:07:00,
2009-02-27 11:08:00,45.2,39.4,30.24,NW,318,0.0,4.0,80,0.00,,,0.00,Wunderground v.1.15,2009-02-27 19:08:00,
2009-02-27 11:11:00,45.4,40.2,30.23,NW,318,0.0,1.0,82,0.00,,,0.00,Wunderground v.1.15,2009-02-27 19:11:00,
2009-02-27 11:12:00,45.5,40.3,30.23,NW,318,0.0,1.0,82,0.00,,,0.00,Wunderground v.1.15,2009-02-27 19:12:00,
2009-02-27 11:13:00,45.8,40.6,30.23,NW,314,3.0,3.0,82,0.00,,,0.00,Wunderground v.1.15,2009-02-27 19:13:00,
2009-02-27 11:16:00,46.0,40.5,30.23,NW,319,3.0,5.0,81,0.00,,,0.00,Wunderground v.1.15,2009-02-27 19:16:00,
2009-02-27 11:17:00,46.0,40.5,30.23,NW,318,3.0,5.0,81,0.00,,,0.00,Wunderground v.1.15,2009-02-27 19:17:00,
2009-02-27 11:18:00,46.0,39.9,30.23,WNW,302,5.0,5.0,79,0.00,,,0.00,Wunderground v.1.15,2009-02-27 19:18:00,
2009-02-27 11:22:00,45.9,39.4,30.23,WNW,290,1.0,5.0,78,0.00,,,0.00,Wunderground v.1.15,2009-02-27 19:22:00,
2009-02-27 11:23:00,46.0,39.9,30.23,WNW,290,2.0,5.0,79,0.00,,,0.00,Wunderground v.1.15,2009-02-27 19:23:00,
2009-02-27 11:27:00,46.3,39.5,30.23,WNW,290,3.0,5.0,77,0.00,,,0.00,Wunderground v.1.15,2009-02-27 19:27:00,
2009-02-27 11:28:00,46.3,39.5,30.23,WNW,290,3.0,5.0,77,0.00,,,0.00,Wunderground v.1.15,2009-02-27 19:28:00,
2009-02-27 11:32:00,46.5,39.3,30.23,WNW,296,2.0,5.0,76,0.00,,,0.00,Wunderground v.1.15,2009-02-27 19:32:00,
2009-02-27 11:33:00,46.5,39.7,30.23,NW,310,4.0,5.0,77,0.00,,,0.00,Wunderground v.1.15,2009-02-27 19:33:00,
2009-02-27 11:37:00,46.9,40.1,30.22,NW,313,3.0,6.0,77,0.00,,,0.00,Wunderground v.1.15,2009-02-27 19:37:00,
2009-02-27 11:38:00,46.9,39.7,30.22,NW,313,1.0,6.0,76,0.00,,,0.00,Wunderground v.1.15,2009-02-27 19:38:00,
2009-02-27 11:39:00,47.1,40.6,30.22,NW,313,2.0,6.0,78,0.00,,,0.00,Wunderground v.1.15,2009-02-27 19:39:00,
2009-02-27 11:42:00,47.5,40.0,30.22,NW,316,2.0,4.0,75,0.00,,,0.00,Wunderground v.1.15,2009-02-27 19:42:00,
2009-02-27 11:43:00,47.4,40.2,30.22,NW,308,2.0,4.0,76,0.00,,,0.00,Wunderground v.1.15,2009-02-27 19:43:00,
2009-02-27 11:44:00,47.4,39.9,30.22,NW,308,2.0,4.0,75,0.00,,,0.00,Wunderground v.1.15,2009-02-27 19:44:00,
2009-02-27 11:47:00,48.0,41.5,30.22,NW,309,2.0,6.0,78,0.00,,,0.00,Wunderground v.1.15,2009-02-27 19:47:00,
2009-02-27 11:48:00,48.2,41.0,30.22,NW,309,1.0,6.0,76,0.00,,,0.00,Wunderground v.1.15,2009-02-27 19:48:00,
2009-02-27 11:49:00,48.3,41.1,30.22,NW,309,0.0,6.0,76,0.00,,,0.00,Wunderground v.1.15,2009-02-27 19:49:00,
2009-02-27 11:52:00,48.7,41.1,30.22,NW,309,2.0,4.0,75,0.00,,,0.00,Wunderground v.1.15,2009-02-27 19:52:00,
2009-02-27 11:53:00,48.7,41.1,30.22,NW,309,1.0,4.0,75,0.00,,,0.00,Wunderground v.1.15,2009-02-27 19:53:00,
2009-02-27 11:54:00,48.7,40.8,30.22,NW,309,0.0,4.0,74,0.00,,,0.00,Wunderground v.1.15,2009-02-27 19:54:00,
2009-02-27 11:58:00,48.6,41.0,30.22,NW,306,5.0,5.0,75,0.00,,,0.00,Wunderground v.1.15,2009-02-27 19:58:00,
2009-02-27 11:59:00,48.7,41.1,30.22,NW,322,5.0,6.0,75,0.00,,,0.00,Wunderground v.1.15,2009-02-27 19:59:00,
2009-02-27 12:03:00,48.6,41.7,30.22,WNW,289,5.0,6.0,77,0.00,,,0.00,Wunderground v.1.15,2009-02-27 20:03:00,
2009-02-27 12:04:00,48.5,40.6,30.22,WNW,296,2.0,6.0,74,0.00,,,0.00,Wunderground v.1.15,2009-02-27 20:04:00,
2009-02-27 12:08:00,48.4,41.2,30.22,NW,306,3.0,6.0,76,0.00,,,0.00,Wunderground v.1.15,2009-02-27 20:08:00,
2009-02-27 12:09:00,48.4,41.2,30.22,NW,305,1.0,6.0,76,0.00,,,0.00,Wunderground v.1.15,2009-02-27 20:09:00,
2009-02-27 12:10:00,48.6,41.4,30.22,NW,305,0.0,3.0,76,0.00,,,0.00,Wunderground v.1.15,2009-02-27 20:10:00,
2009-02-27 12:13:00,49.2,42.3,30.22,NW,304,3.0,3.0,77,0.00,,,0.00,Wunderground v.1.15,2009-02-27 20:13:00,
2009-02-27 12:14:00,49.2,41.6,30.22,NW,306,4.0,4.0,75,0.00,,,0.00,Wunderground v.1.15,2009-02-27 20:14:00,
2009-02-27 12:15:00,49.2,41.6,30.22,NW,307,3.0,4.0,75,0.00,,,0.00,Wunderground v.1.15,2009-02-27 20:15:00,
2009-02-27 12:18:00,49.9,42.3,30.22,WSW,250,3.0,4.0,75,0.00,,,0.00,Wunderground v.1.15,2009-02-27 20:18:00,
2009-02-27 12:19:00,50.0,42.0,30.22,WNW,288,6.0,6.0,74,0.00,,,0.00,Wunderground v.1.15,2009-02-27 20:19:00,
2009-02-27 12:20:00,49.7,41.4,30.22,WNW,290,3.0,4.0,73,0.00,,,0.00,Wunderground v.1.15,2009-02-27 20:20:00,
2009-02-27 12:23:00,48.9,41.0,30.22,WNW,300,3.0,8.0,74,0.00,,,0.00,Wunderground v.1.15,2009-02-27 20:23:00,
2009-02-27 12:24:00,49.0,41.4,30.22,WSW,248,0.0,8.0,75,0.00,,,0.00,Wunderground v.1.15,2009-02-27 20:24:00,
2009-02-27 12:25:00,49.0,41.4,30.22,WNW,291,5.0,8.0,75,0.00,,,0.00,Wunderground v.1.15,2009-02-27 20:25:00,
2009-02-27 12:28:00,48.3,40.4,30.21,WNW,299,4.0,8.0,74,0.00,,,0.00,Wunderground v.1.15,2009-02-27 20:28:00,
2009-02-27 12:29:00,48.3,40.7,30.21,WNW,298,2.0,8.0,75,0.00,,,0.00,Wunderground v.1.15,2009-02-27 20:29:00,
2009-02-27 12:30:00,48.5,41.3,30.21,WNW,298,3.0,4.0,76,0.00,,,0.00,Wunderground v.1.15,2009-02-27 20:30:00,
2009-02-27 12:31:00,48.5,41.3,30.21,WNW,293,5.0,5.0,76,0.00,,,0.00,Wunderground v.1.15,2009-02-27 20:31:00,
2009-02-27 12:34:00,47.9,40.0,30.21,WNW,287,1.0,6.0,74,0.00,,,0.00,Wunderground v.1.15,2009-02-27 20:34:00,
2009-02-27 12:35:00,47.8,40.3,30.21,WNW,287,2.0,6.0,75,0.00,,,0.00,Wunderground v.1.15,2009-02-27 20:35:00,
2009-02-27 12:36:00,47.9,41.0,30.21,WNW,283,5.0,6.0,77,0.00,,,0.00,Wunderground v.1.15,2009-02-27 20:36:00,
2009-02-27 12:39:00,47.7,39.8,30.21,WNW,291,7.0,7.0,74,0.00,,,0.00,Wunderground v.1.15,2009-02-27 20:39:00,
2009-02-27 12:40:00,47.6,39.7,30.21,WNW,301,3.0,4.0,74,0.00,,,0.00,Wunderground v.1.15,2009-02-27 20:40:00,
2009-02-27 12:42:00,47.2,40.0,30.21,WNW,294,5.0,6.0,76,0.00,,,0.00,Wunderground v.1.15,2009-02-27 20:42:00,
2009-02-27 12:44:00,47.0,39.8,30.21,WNW,290,3.0,9.0,76,0.00,,,0.00,Wunderground v.1.15,2009-02-27 20:44:00,
2009-02-27 12:45:00,47.1,39.9,30.21,WNW,290,3.0,9.0,76,0.00,,,0.00,Wunderground v.1.15,2009-02-27 20:45:00,
2009-02-27 12:47:00,47.6,40.7,30.21,WSW,257,2.0,9.0,77,0.00,,,0.00,Wunderground v.1.15,2009-02-27 20:47:00,
2009-02-27 12:49:00,48.3,41.4,30.21,West,280,3.0,9.0,77,0.00,,,0.00,Wunderground v.1.15,2009-02-27 20:49:00,
2009-02-27 12:50:00,48.4,41.5,30.21,NW,305,5.0,6.0,77,0.00,,,0.00,Wunderground v.1.15,2009-02-27 20:50:00,
2009-02-27 12:52:00,48.0,39.8,30.21,WNW,294,2.0,6.0,73,0.00,,,0.00,Wunderground v.1.15,2009-02-27 20:52:00,
2009-02-27 12:54:00,47.9,40.4,30.21,WNW,286,4.0,6.0,75,0.00,,,0.00,Wunderground v.1.15,2009-02-27 20:54:00,
2009-02-27 12:55:00,47.7,39.8,30.21,WNW,296,3.0,6.0,74,0.00,,,0.00,Wunderground v.1.15,2009-02-27 20:55:00,
2009-02-27 12:56:00,47.7,39.8,30.21,NW,309,4.0,6.0,74,0.00,,,0.00,Wunderground v.1.15,2009-02-27 20:56:00,
2009-02-27 12:57:00,47.7,40.5,30.20,WNW,294,3.0,6.0,76,0.00,,,0.00,Wunderground v.1.15,2009-02-27 20:57:00,
2009-02-27 13:00:00,48.0,40.5,30.20,NW,306,4.0,4.0,75,0.00,,,0.00,Wunderground v.1.15,2009-02-27 21:00:00,
2009-02-27 13:01:00,47.9,40.4,30.20,WNW,283,5.0,5.0,75,0.00,,,0.00,Wunderground v.1.15,2009-02-27 21:01:00,
2009-02-27 13:02:00,47.9,40.0,30.20,WNW,292,5.0,7.0,74,0.00,,,0.00,Wunderground v.1.15,2009-02-27 21:02:00,
2009-02-27 13:05:00,47.8,40.9,30.20,West,280,4.0,7.0,77,0.00,,,0.00,Wunderground v.1.15,2009-02-27 21:05:00,
2009-02-27 13:06:00,48.1,40.5,30.20,West,267,3.0,7.0,75,0.00,,,0.00,Wunderground v.1.15,2009-02-27 21:06:00,
2009-02-27 13:07:00,48.3,40.7,30.20,WNW,288,1.0,7.0,75,0.00,,,0.00,Wunderground v.1.15,2009-02-27 21:07:00,
2009-02-27 13:10:00,48.0,40.1,30.20,WNW,286,5.0,5.0,74,0.00,,,0.00,Wunderground v.1.15,2009-02-27 21:10:00,
2009-02-27 13:11:00,47.9,40.4,30.20,WNW,293,3.0,5.0,75,0.00,,,0.00,Wunderground v.1.15,2009-02-27 21:11:00,
2009-02-27 13:12:00,47.9,40.4,30.20,WNW,292,4.0,5.0,75,0.00,,,0.00,Wunderground v.1.15,2009-02-27 21:12:00,
2009-02-27 13:15:00,48.0,40.5,30.20,NW,307,3.0,5.0,75,0.00,,,0.00,Wunderground v.1.15,2009-02-27 21:15:00,
2009-02-27 13:16:00,48.1,40.9,30.20,NW,317,4.0,7.0,76,0.00,,,0.00,Wunderground v.1.15,2009-02-27 21:16:00,
2009-02-27 13:18:00,48.3,41.4,30.20,NW,307,3.0,7.0,77,0.00,,,0.00,Wunderground v.1.15,2009-02-27 21:18:00,
2009-02-27 13:20:00,48.7,40.8,30.20,WNW,291,5.0,6.0,74,0.00,,,0.00,Wunderground v.1.15,2009-02-27 21:20:00,
2009-02-27 13:21:00,48.6,40.7,30.20,WNW,303,4.0,6.0,74,0.00,,,0.00,Wunderground v.1.15,2009-02-27 21:21:00,
2009-02-27 13:22:00,48.7,41.1,30.20,NNW,335,4.0,6.0,75,0.00,,,0.00,Wunderground v.1.15,2009-02-27 21:22:00,
2009-02-27 13:23:00,48.8,41.2,30.20,WNW,290,8.0,8.0,75,0.00,,,0.00,Wunderground v.1.15,2009-02-27 21:23:00,
2009-02-27 13:27:00,48.7,40.8,30.20,WNW,283,6.0,9.0,74,0.00,,,0.00,Wunderground v.1.15,2009-02-27 21:27:00,
2009-02-27 13:28:00,48.5,40.6,30.20,WNW,293,6.0,9.0,74,0.00,,,0.00,Wunderground v.1.15,2009-02-27 21:28:00,
2009-02-27 13:32:00,48.4,40.5,30.21,WNW,286,4.0,7.0,74,0.00,,,0.00,Wunderground v.1.15,2009-02-27 21:32:00,
2009-02-27 13:33:00,48.5,40.6,30.21,NW,310,5.0,7.0,74,0.00,,,0.00,Wunderground v.1.15,2009-02-27 21:33:00,
2009-02-27 13:37:00,48.4,40.8,30.20,NW,324,3.0,7.0,75,0.00,,,0.00,Wunderground v.1.15,2009-02-27 21:37:00,
2009-02-27 13:38:00,48.5,40.9,30.20,NW,314,2.0,7.0,75,0.00,,,0.00,Wunderground v.1.15,2009-02-27 21:38:00,
2009-02-27 13:42:00,49.0,41.8,30.20,NNW,329,3.0,5.0,76,0.00,,,0.00,Wunderground v.1.15,2009-02-27 21:42:00,
2009-02-27 13:43:00,49.0,41.4,30.20,WNW,290,4.0,5.0,75,0.00,,,0.00,Wunderground v.1.15,2009-02-27 21:43:00,
2009-02-27 13:44:00,49.1,41.5,30.20,WNW,291,3.0,5.0,75,0.00,,,0.00,Wunderground v.1.15,2009-02-27 21:44:00,
2009-02-27 13:47:00,49.1,41.5,30.20,WNW,293,5.0,5.0,75,0.00,,,0.00,Wunderground v.1.15,2009-02-27 21:47:00,
2009-02-27 13:48:00,49.1,41.5,30.20,WNW,287,3.0,5.0,75,0.00,,,0.00,Wunderground v.1.15,2009-02-27 21:48:00,
2009-02-27 13:49:00,49.2,41.3,30.20,WNW,286,0.0,5.0,74,0.00,,,0.00,Wunderground v.1.15,2009-02-27 21:49:00,
2009-02-27 13:53:00,49.2,41.3,30.20,WNW,298,2.0,5.0,74,0.00,,,0.00,Wunderground v.1.15,2009-02-27 21:53:00,
2009-02-27 13:54:00,49.3,41.4,30.20,NW,307,3.0,5.0,74,0.00,,,0.00,Wunderground v.1.15,2009-02-27 21:54:00,
2009-02-27 13:58:00,49.7,41.7,30.19,WNW,298,2.0,5.0,74,0.00,,,0.00,Wunderground v.1.15,2009-02-27 21:58:00,
2009-02-27 13:59:00,49.7,41.4,30.19,WNW,298,0.0,5.0,73,0.00,,,0.00,Wunderground v.1.15,2009-02-27 21:59:00,
2009-02-27 14:03:00,50.3,42.3,30.19,NNE,25,0.0,3.0,74,0.00,,,0.00,Wunderground v.1.15,2009-02-27 22:03:00,
2009-02-27 14:04:00,50.2,41.5,30.19,NE,44,1.0,3.0,72,0.00,,,0.00,Wunderground v.1.15,2009-02-27 22:04:00,
2009-02-27 14:08:00,50.2,42.2,30.19,NNE,22,2.0,4.0,74,0.00,,,0.00,Wunderground v.1.15,2009-02-27 22:08:00,
2009-02-27 14:09:00,50.3,42.0,30.19,NNE,22,1.0,4.0,73,0.00,,,0.00,Wunderground v.1.15,2009-02-27 22:09:00,
2009-02-27 14:10:00,50.3,41.6,30.19,ENE,57,3.0,3.0,72,0.00,,,0.00,Wunderground v.1.15,2009-02-27 22:10:00,
2009-02-27 14:13:00,50.3,41.6,30.20,North,10,2.0,4.0,72,0.00,,,0.00,Wunderground v.1.15,2009-02-27 22:13:00,
2009-02-27 14:14:00,50.4,41.3,30.20,North,360,5.0,5.0,71,0.00,,,0.00,Wunderground v.1.15,2009-02-27 22:14:00,
2009-02-27 14:15:00,50.4,41.3,30.20,ESE,121,2.0,5.0,71,0.00,,,0.00,Wunderground v.1.15,2009-02-27 22:15:00,
2009-02-27 14:19:00,50.5,41.4,30.20,NNE,22,1.0,5.0,71,0.00,,,0.00,Wunderground v.1.15,2009-02-27 22:19:00,
2009-02-27 14:20:00,50.4,41.0,30.20,ENE,61,2.0,2.0,70,0.00,,,0.00,Wunderground v.1.15,2009-02-27 22:20:00,
2009-02-27 14:24:00,50.4,42.4,30.19,North,355,2.0,5.0,74,0.00,,,0.00,Wunderground v.1.15,2009-02-27 22:24:00,
2009-02-27 14:25:00,50.2,41.2,30.19,East,94,0.0,5.0,71,0.00,,,0.00,Wunderground v.1.15,2009-02-27 22:25:00,
2009-02-27 14:29:00,50.3,41.3,30.19,ENE,65,6.0,6.0,71,0.00,,,0.00,Wunderground v.1.15,2009-02-27 22:29:00,
2009-02-27 14:30:00,50.2,41.2,30.19,ENE,61,3.0,4.0,71,0.00,,,0.00,Wunderground v.1.15,2009-02-27 22:30:00,
2009-02-27 14:35:00,50.3,42.0,30.19,ENE,57,1.0,6.0,73,0.00,,,0.00,Wunderground v.1.15,2009-02-27 22:35:00,
2009-02-27 14:36:00,50.4,41.7,30.19,NE,38,2.0,6.0,72,0.00,,,0.00,Wunderground v.1.15,2009-02-27 22:36:00,
2009-02-27 14:40:00,50.7,41.3,30.19,NW,326,2.0,3.0,70,0.00,,,0.00,Wunderground v.1.15,2009-02-27 22:40:00,
2009-02-27 14:41:00,50.6,40.8,30.19,NNW,328,0.0,3.0,69,0.00,,,0.00,Wunderground v.1.15,2009-02-27 22:41:00,
2009-02-27 14:45:00,50.0,41.0,30.19,ENE,73,0.0,4.0,71,0.00,,,0.00,Wunderground v.1.15,2009-02-27 22:45:00,
2009-02-27 14:46:00,49.9,41.2,30.20,ENE,73,2.0,4.0,72,0.00,,,0.00,Wunderground v.1.15,2009-02-27 22:46:00,
2009-02-27 14:50:00,49.6,40.9,30.19,ENE,73,0.0,1.0,72,0.00,,,0.00,Wunderground v.1.15,2009-02-27 22:50:00,
2009-02-27 14:51:00,49.5,40.8,30.19,ENE,73,0.0,1.0,72,0.00,,,0.00,Wunderground v.1.15,2009-02-27 22:51:00,
2009-02-27 14:55:00,49.6,41.3,30.19,ENE,72,2.0,2.0,73,0.00,,,0.00,Wunderground v.1.15,2009-02-27 22:55:00,
2009-02-27 14:56:00,49.6,41.7,30.19,ENE,72,1.0,3.0,74,0.00,,,0.00,Wunderground v.1.15,2009-02-27 22:56:00,
2009-02-27 15:00:00,49.6,41.3,30.20,ENE,72,1.0,1.0,73,0.00,,,0.00,Wunderground v.1.15,2009-02-27 23:00:00,
2009-02-27 15:01:00,49.7,41.4,30.20,ENE,72,1.0,2.0,73,0.00,,,0.00,Wunderground v.1.15,2009-02-27 23:01:00,
2009-02-27 15:05:00,49.9,41.2,30.20,ENE,72,0.0,2.0,72,0.00,,,0.00,Wunderground v.1.15,2009-02-27 23:05:00,
2009-02-27 15:06:00,50.2,41.9,30.20,ENE,72,0.0,2.0,73,0.00,,,0.00,Wunderground v.1.15,2009-02-27 23:06:00,
2009-02-27 15:07:00,50.4,42.4,30.20,ENE,72,0.0,2.0,74,0.00,,,0.00,Wunderground v.1.15,2009-02-27 23:07:00,
2009-02-27 15:10:00,50.6,42.6,30.20,NE,53,0.0,1.0,74,0.00,,,0.00,Wunderground v.1.15,2009-02-27 23:10:00,
2009-02-27 15:11:00,50.7,43.4,30.20,NE,53,0.0,1.0,76,0.00,,,0.00,Wunderground v.1.15,2009-02-27 23:11:00,
2009-02-27 15:13:00,50.8,42.8,30.20,NE,53,0.0,3.0,74,0.00,,,0.00,Wunderground v.1.15,2009-02-27 23:13:00,
2009-02-27 15:16:00,50.8,43.5,30.20,NE,34,1.0,3.0,76,0.00,,,0.00,Wunderground v.1.15,2009-02-27 23:16:00,
2009-02-27 15:18:00,50.7,43.1,30.20,NNW,336,0.0,3.0,75,0.00,,,0.00,Wunderground v.1.15,2009-02-27 23:18:00,
2009-02-27 15:21:00,50.6,43.7,30.19,NNW,336,0.0,1.0,77,0.00,,,0.00,Wunderground v.1.15,2009-02-27 23:21:00,
2009-02-27 15:22:00,50.4,42.8,30.19,NNW,336,0.0,1.0,75,0.00,,,0.00,Wunderground v.1.15,2009-02-27 23:22:00,
2009-02-27 15:24:00,50.3,42.7,30.19,NNW,336,0.0,1.0,75,0.00,,,0.00,Wunderground v.1.15,2009-02-27 23:24:00,
2009-02-27 15:26:00,50.5,43.6,30.19,NNW,336,0.0,1.0,77,0.00,,,0.00,Wunderground v.1.15,2009-02-27 23:26:00,
2009-02-27 15:27:00,50.5,42.9,30.19,NNW,336,0.0,1.0,75,0.00,,,0.00,Wunderground v.1.15,2009-02-27 23:27:00,
2009-02-27 15:29:00,50.5,42.5,30.19,NNW,336,0.0,2.0,74,0.00,,,0.00,Wunderground v.1.15,2009-02-27 23:29:00,
2009-02-27 15:31:00,50.3,42.3,30.19,NNW,336,2.0,2.0,74,0.00,,,0.00,Wunderground v.1.15,2009-02-27 23:31:00,
2009-02-27 15:32:00,50.3,42.3,30.19,NNW,336,0.0,2.0,74,0.00,,,0.00,Wunderground v.1.15,2009-02-27 23:32:00,
2009-02-27 15:33:00,50.3,42.3,30.19,NNW,336,2.0,2.0,74,0.00,,,0.00,Wunderground v.1.15,2009-02-27 23:33:00,
2009-02-27 15:34:00,50.3,42.0,30.19,NNW,341,2.0,3.0,73,0.00,,,0.00,Wunderground v.1.15,2009-02-27 23:34:00,
2009-02-27 15:36:00,50.1,42.1,30.19,NNW,342,0.0,3.0,74,0.00,,,0.00,Wunderground v.1.15,2009-02-27 23:36:00,
2009-02-27 15:38:00,50.1,42.1,30.19,NNW,343,0.0,3.0,74,0.00,,,0.00,Wunderground v.1.15,2009-02-27 23:38:00,
2009-02-27 15:39:00,50.2,42.2,30.19,NNW,343,0.0,3.0,74,0.00,,,0.00,Wunderground v.1.15,2009-02-27 23:39:00,
2009-02-27 15:41:00,49.9,41.9,30.19,NNE,28,1.0,3.0,74,0.00,,,0.00,Wunderground v.1.15,2009-02-27 23:41:00,
2009-02-27 15:43:00,49.7,42.1,30.19,NNE,28,1.0,3.0,75,0.00,,,0.00,Wunderground v.1.15,2009-02-27 23:43:00,
2009-02-27 15:45:00,49.7,42.1,30.19,NNE,28,0.0,3.0,75,0.00,,,0.00,Wunderground v.1.15,2009-02-27 23:45:00,
2009-02-27 15:46:00,49.7,42.1,30.18,NE,41,2.0,4.0,75,0.00,,,0.00,Wunderground v.1.15,2009-02-27 23:46:00,
2009-02-27 15:48:00,49.6,41.7,30.18,NE,39,0.0,4.0,74,0.00,,,0.00,Wunderground v.1.15,2009-02-27 23:48:00,
2009-02-27 15:50:00,49.5,41.6,30.18,NE,45,1.0,2.0,74,0.00,,,0.00,Wunderground v.1.15,2009-02-27 23:50:00,
2009-02-27 15:51:00,49.5,42.2,30.18,NE,46,1.0,3.0,76,0.00,,,0.00,Wunderground v.1.15,2009-02-27 23:51:00,
2009-02-27 15:53:00,49.8,42.9,30.18,NE,46,0.0,3.0,77,0.00,,,0.00,Wunderground v.1.15,2009-02-27 23:53:00,
2009-02-27 15:55:00,50.0,42.7,30.18,NE,45,2.0,4.0,76,0.00,,,0.00,Wunderground v.1.15,2009-02-27 23:55:00,
2009-02-27 15:57:00,49.9,41.9,30.18,NE,46,3.0,4.0,74,0.00,,,0.00,Wunderground v.1.15,2009-02-27 23:57:00,
2009-02-27 15:58:00,49.6,41.7,30.18,NE,46,1.0,4.0,74,0.00,,,0.00,Wunderground v.1.15,2009-02-27 23:58:00,
2009-02-27 16:00:00,49.4,41.5,30.19,NE,46,2.0,2.0,74,0.00,,,0.00,Wunderground v.1.15,2009-02-28 00:00:00,
2009-02-27 16:02:00,49.3,41.4,30.18,NE,46,2.0,2.0,74,0.00,,,0.00,Wunderground v.1.15,2009-02-28 00:02:00,
2009-02-27 16:03:00,49.3,41.4,30.18,NE,46,1.0,2.0,74,0.00,,,0.00,Wunderground v.1.15,2009-02-28 00:03:00,
2009-02-27 16:04:00,49.4,41.8,30.18,NE,46,1.0,2.0,75,0.00,,,0.00,Wunderground v.1.15,2009-02-28 00:04:00,
2009-02-27 16:05:00,49.4,41.5,30.18,NE,50,4.0,4.0,74,0.00,,,0.00,Wunderground v.1.15,2009-02-28 00:05:00,
2009-02-27 16:07:00,49.5,42.2,30.18,NE,53,0.0,4.0,76,0.00,,,0.00,Wunderground v.1.15,2009-02-28 00:07:00,
2009-02-27 16:08:00,49.5,41.6,30.18,NE,53,0.0,4.0,74,0.00,,,0.00,Wunderground v.1.15,2009-02-28 00:08:00,
2009-02-27 16:09:00,49.6,42.0,30.18,NE,53,0.0,4.0,75,0.00,,,0.00,Wunderground v.1.15,2009-02-28 00:09:00,
2009-02-27 16:10:00,49.6,42.3,30.18,NE,53,1.0,3.0,76,0.00,,,0.00,Wunderground v.1.15,2009-02-28 00:10:00,
2009-02-27 16:13:00,49.7,41.7,30.18,NE,56,2.0,4.0,74,0.00,,,0.00,Wunderground v.1.15,2009-02-28 00:13:00,
2009-02-27 16:14:00,49.6,42.0,30.18,ENE,64,4.0,6.0,75,0.00,,,0.00,Wunderground v.1.15,2009-02-28 00:14:00,
2009-02-27 16:15:00,49.6,42.3,30.18,ENE,64,2.0,6.0,76,0.00,,,0.00,Wunderground v.1.15,2009-02-28 00:15:00,
2009-02-27 16:18:00,49.9,42.3,30.17,ENE,64,5.0,6.0,75,0.00,,,0.00,Wunderground v.1.15,2009-02-28 00:18:00,
2009-02-27 16:19:00,49.8,42.2,30.17,ENE,62,3.0,6.0,75,0.00,,,0.00,Wunderground v.1.15,2009-02-28 00:19:00,
2009-02-27 16:20:00,49.9,42.3,30.17,ENE,63,3.0,3.0,75,0.00,,,0.00,Wunderground v.1.15,2009-02-28 00:20:00,
2009-02-27 16:23:00,50.0,42.4,30.17,ENE,73,2.0,4.0,75,0.00,,,0.00,Wunderground v.1.15,2009-02-28 00:23:00,
2009-02-27 16:24:00,50.1,42.8,30.17,ENE,60,5.0,5.0,76,0.00,,,0.00,Wunderground v.1.15,2009-02-28 00:24:00,
2009-02-27 16:25:00,50.1,42.5,30.17,ENE,57,5.0,5.0,75,0.00,,,0.00,Wunderground v.1.15,2009-02-28 00:25:00,
2009-02-27 16:29:00,49.9,42.3,30.16,ENE,69,4.0,6.0,75,0.00,,,0.00,Wunderground v.1.15,2009-02-28 00:29:00,
2009-02-27 16:30:00,49.8,42.2,30.16,ENE,69,3.0,4.0,75,0.00,,,0.00,Wunderground v.1.15,2009-02-28 00:30:00,
2009-02-27 16:34:00,49.5,41.9,30.16,ENE,69,2.0,9.0,75,0.00,,,0.00,Wunderground v.1.15,2009-02-28 00:34:00,
2009-02-27 16:35:00,49.4,42.1,30.16,ENE,69,3.0,9.0,76,0.00,,,0.00,Wunderground v.1.15,2009-02-28 00:35:00,
2009-02-27 16:39:00,49.1,42.2,30.16,ENE,69,2.0,9.0,77,0.00,,,0.00,Wunderground v.1.15,2009-02-28 00:39:00,
2009-02-27 16:41:00,49.0,42.1,30.16,ENE,72,3.0,8.0,77,0.00,,,0.00,Wunderground v.1.15,2009-02-28 00:41:00,
2009-02-27 16:44:00,48.7,42.1,30.16,ENE,72,2.0,8.0,78,0.00,,,0.00,Wunderground v.1.15,2009-02-28 00:44:00,
2009-02-27 16:46:00,48.6,42.0,30.16,East,80,3.0,8.0,78,0.00,,,0.00,Wunderground v.1.15,2009-02-28 00:46:00,
2009-02-27 16:50:00,48.5,42.0,30.16,ENE,74,3.0,4.0,78,0.00,,,0.00,Wunderground v.1.15,2009-02-28 00:50:00,
2009-02-27 16:51:00,48.5,42.0,30.16,ENE,74,3.0,4.0,78,0.00,,,0.00,Wunderground v.1.15,2009-02-28 00:51:00,
2009-02-27 16:55:00,48.3,41.8,30.16,ENE,72,4.0,6.0,78,0.00,,,0.00,Wunderground v.1.15,2009-02-28 00:55:00,
2009-02-27 16:56:00,48.3,41.8,30.16,ENE,73,4.0,6.0,78,0.00,,,0.00,Wunderground v.1.15,2009-02-28 00:56:00,
2009-02-27 16:57:00,48.3,41.8,30.16,ENE,73,4.0,6.0,78,0.00,,,0.00,Wunderground v.1.15,2009-02-28 00:57:00,
2009-02-27 17:00:00,48.2,41.7,30.15,ENE,69,3.0,6.0,78,0.00,,,0.00,Wunderground v.1.15,2009-02-28 01:00:00,
2009-02-27 17:01:00,48.2,41.7,30.15,ENE,67,4.0,6.0,78,0.00,,,0.00,Wunderground v.1.15,2009-02-28 01:01:00,
2009-02-27 17:02:00,48.2,41.7,30.15,ENE,67,4.0,6.0,78,0.00,,,0.00,Wunderground v.1.15,2009-02-28 01:02:00,
2009-02-27 17:06:00,48.0,41.8,30.15,ENE,78,4.0,6.0,79,0.00,,,0.00,Wunderground v.1.15,2009-02-28 01:06:00,
2009-02-27 17:07:00,47.9,41.7,30.15,ENE,78,3.0,6.0,79,0.00,,,0.00,Wunderground v.1.15,2009-02-28 01:07:00,
2009-02-27 17:11:00,47.8,41.6,30.15,ENE,77,3.0,5.0,79,0.00,,,0.00,Wunderground v.1.15,2009-02-28 01:11:00,
2009-02-27 17:12:00,47.8,41.6,30.15,ENE,76,3.0,5.0,79,0.00,,,0.00,Wunderground v.1.15,2009-02-28 01:12:00,
2009-02-27 17:17:00,47.6,41.7,30.15,ENE,72,4.0,6.0,80,0.00,,,0.00,Wunderground v.1.15,2009-02-28 01:17:00,
2009-02-27 17:18:00,47.6,41.4,30.15,ENE,69,5.0,8.0,79,0.00,,,0.00,Wunderground v.1.15,2009-02-28 01:18:00,
2009-02-27 17:22:00,47.5,41.3,30.15,ENE,78,5.0,7.0,79,0.00,,,0.00,Wunderground v.1.15,2009-02-28 01:22:00,
2009-02-27 17:23:00,47.4,41.2,30.14,ENE,61,6.0,7.0,79,0.00,,,0.00,Wunderground v.1.15,2009-02-28 01:23:00,
2009-02-27 17:27:00,47.3,41.4,30.14,ENE,74,3.0,7.0,80,0.00,,,0.00,Wunderground v.1.15,2009-02-28 01:27:00,
2009-02-27 17:28:00,47.2,41.3,30.14,ENE,78,4.0,7.0,80,0.00,,,0.00,Wunderground v.1.15,2009-02-28 01:28:00,
2009-02-27 17:32:00,47.2,41.3,30.14,ENE,74,3.0,6.0,80,0.00,,,0.00,Wunderground v.1.15,2009-02-28 01:32:00,
2009-02-27 17:33:00,47.2,41.0,30.14,ENE,74,4.0,6.0,79,0.00,,,0.00,Wunderground v.1.15,2009-02-28 01:33:00,
2009-02-27 17:37:00,47.4,39.9,30.14,ENE,74,4.0,7.0,75,0.00,,,0.00,Wunderground v.1.15,2009-02-28 01:37:00,
2009-02-27 17:38:00,47.4,39.9,30.14,ENE,74,4.0,7.0,75,0.00,,,0.00,Wunderground v.1.15,2009-02-28 01:38:00,
2009-02-27 17:43:00,47.6,39.0,30.14,ENE,78,4.0,6.0,72,0.00,,,0.00,Wunderground v.1.15,2009-02-28 01:43:00,
2009-02-27 17:44:00,47.7,39.1,30.14,ENE,65,4.0,6.0,72,0.00,,,0.00,Wunderground v.1.15,2009-02-28 01:44:00,
2009-02-27 17:48:00,47.9,38.6,30.14,ENE,69,4.0,7.0,70,0.00,,,0.00,Wunderground v.1.15,2009-02-28 01:48:00,
2009-02-27 17:49:00,47.8,38.1,30.14,ENE,74,4.0,7.0,69,0.00,,,0.00,Wunderground v.1.15,2009-02-28 01:49:00,
2009-02-27 17:53:00,47.9,38.2,30.14,East,80,5.0,7.0,69,0.00,,,0.00,Wunderground v.1.15,2009-02-28 01:53:00,
2009-02-27 17:54:00,47.9,37.8,30.14,ENE,63,6.0,10.0,68,0.00,,,0.00,Wunderground v.1.15,2009-02-28 01:54:00,
2009-02-27 17:58:00,47.9,37.8,30.13,ENE,67,5.0,10.0,68,0.00,,,0.00,Wunderground v.1.15,2009-02-28 01:58:00,
2009-02-27 17:59:00,47.9,37.8,30.13,ENE,73,5.0,10.0,68,0.00,,,0.00,Wunderground v.1.15,2009-02-28 01:59:00,
2009-02-27 18:00:00,47.8,37.7,30.13,ENE,74,4.0,5.0,68,0.00,,,0.00,Wunderground v.1.15,2009-02-28 02:00:00,
2009-02-27 18:03:00,47.7,38.0,30.13,East,82,5.0,7.0,69,0.00,,,0.00,Wunderground v.1.15,2009-02-28 02:03:00,
2009-02-27 18:04:00,47.7,38.0,30.13,East,79,6.0,7.0,69,0.00,,,0.00,Wunderground v.1.15,2009-02-28 02:04:00,
2009-02-27 18:05:00,47.6,37.9,30.12,ENE,78,7.0,13.0,69,0.00,,,0.00,Wunderground v.1.15,2009-02-28 02:05:00,
2009-02-27 18:06:00,47.6,37.9,30.12,East,82,5.0,13.0,69,0.00,,,0.00,Wunderground v.1.15,2009-02-28 02:06:00,
2009-02-27 18:08:00,47.5,38.2,30.12,East,81,4.0,13.0,70,0.00,,,0.00,Wunderground v.1.15,2009-02-28 02:08:00,
2009-02-27 18:09:00,47.4,38.5,30.12,ENE,78,5.0,13.0,71,0.00,,,0.00,Wunderground v.1.15,2009-02-28 02:09:00,
2009-02-27 18:10:00,47.3,38.7,30.12,ESE,102,9.0,9.0,72,0.00,,,0.00,Wunderground v.1.15,2009-02-28 02:10:00,
2009-02-27 18:11:00,47.2,38.6,30.12,ENE,59,7.0,9.0,72,0.00,,,0.00,Wunderground v.1.15,2009-02-28 02:11:00,
2009-02-27 18:13:00,47.1,38.5,30.12,East,80,5.0,12.0,72,0.00,,,0.00,Wunderground v.1.15,2009-02-28 02:13:00,
2009-02-27 18:14:00,47.1,38.5,30.12,ENE,73,9.0,15.0,72,0.00,,,0.00,Wunderground v.1.15,2009-02-28 02:14:00,
2009-02-27 18:16:00,47.1,38.5,30.12,East,79,10.0,15.0,72,0.00,,,0.00,Wunderground v.1.15,2009-02-28 02:16:00,
2009-02-27 18:18:00,47.1,38.2,30.12,East,79,6.0,15.0,71,0.00,,,0.00,Wunderground v.1.15,2009-02-28 02:18:00,
2009-02-27 18:20:00,47.1,37.8,30.12,East,83,12.0,14.0,70,0.00,,,0.00,Wunderground v.1.15,2009-02-28 02:20:00,
2009-02-27 18:21:00,47.2,37.9,30.12,ENE,70,4.0,14.0,70,0.00,,,0.00,Wunderground v.1.15,2009-02-28 02:21:00,
2009-02-27 18:24:00,47.2,37.9,30.12,ENE,75,6.0,14.0,70,0.00,,,0.00,Wunderground v.1.15,2009-02-28 02:24:00,
2009-02-27 18:26:00,47.2,37.9,30.12,East,88,5.0,14.0,70,0.00,,,0.00,Wunderground v.1.15,2009-02-28 02:26:00,
2009-02-27 18:29:00,47.3,38.0,30.13,East,82,4.0,14.0,70,0.00,,,0.00,Wunderground v.1.15,2009-02-28 02:29:00,
2009-02-27 18:31:00,47.4,38.1,30.12,ENE,78,6.0,15.0,70,0.00,,,0.00,Wunderground v.1.15,2009-02-28 02:31:00,
2009-02-27 18:34:00,47.5,38.2,30.13,ENE,74,7.0,15.0,70,0.00,,,0.00,Wunderground v.1.15,2009-02-28 02:34:00,
2009-02-27 18:36:00,47.6,37.9,30.13,East,79,7.0,15.0,69,0.00,,,0.00,Wunderground v.1.15,2009-02-28 02:36:00,
2009-02-27 18:37:00,47.6,37.9,30.13,East,95,3.0,15.0,69,0.00,,,0.00,Wunderground v.1.15,2009-02-28 02:37:00,
2009-02-27 18:39:00,47.7,37.3,30.13,East,82,4.0,15.0,67,0.00,,,0.00,Wunderground v.1.15,2009-02-28 02:39:00,
2009-02-27 18:41:00,47.8,37.0,30.13,East,83,9.0,12.0,66,0.00,,,0.00,Wunderground v.1.15,2009-02-28 02:41:00,
2009-02-27 18:42:00,47.8,37.4,30.12,East,84,8.0,12.0,67,0.00,,,0.00,Wunderground v.1.15,2009-02-28 02:42:00,
2009-02-27 18:44:00,47.8,37.4,30.13,ENE,78,4.0,12.0,67,0.00,,,0.00,Wunderground v.1.15,2009-02-28 02:44:00,
2009-02-27 18:47:00,47.9,37.1,30.13,ENE,71,6.0,12.0,66,0.00,,,0.00,Wunderground v.1.15,2009-02-28 02:47:00,
2009-02-27 18:49:00,47.8,37.0,30.13,ENE,77,6.0,12.0,66,0.00,,,0.00,Wunderground v.1.15,2009-02-28 02:49:00,
2009-02-27 18:52:00,47.9,36.7,30.13,ENE,76,3.0,7.0,65,0.00,,,0.00,Wunderground v.1.15,2009-02-28 02:52:00,
2009-02-27 18:54:00,48.0,37.2,30.14,East,93,3.0,7.0,66,0.00,,,0.00,Wunderground v.1.15,2009-02-28 02:54:00,
2009-02-27 18:57:00,48.0,37.2,30.14,East,82,4.0,7.0,66,0.00,,,0.00,Wunderground v.1.15,2009-02-28 02:57:00,
2009-02-27 18:58:00,48.1,37.3,30.14,ENE,75,2.0,7.0,66,0.00,,,0.00,Wunderground v.1.15,2009-02-28 02:58:00,
2009-02-27 19:00:00,48.1,36.9,30.14,ENE,77,6.0,9.0,65,0.00,,,0.00,Wunderground v.1.15,2009-02-28 03:00:00,
2009-02-27 19:02:00,48.1,36.9,30.15,ENE,78,3.0,9.0,65,0.00,,,0.00,Wunderground v.1.15,2009-02-28 03:02:00,
2009-02-27 19:03:00,48.1,36.9,30.15,ENE,76,5.0,9.0,65,0.00,,,0.00,Wunderground v.1.15,2009-02-28 03:03:00,
2009-02-27 19:05:00,47.9,36.7,30.15,East,88,2.0,9.0,65,0.00,,,0.00,Wunderground v.1.15,2009-02-28 03:05:00,
2009-02-27 19:07:00,47.8,36.6,30.15,East,88,1.0,9.0,65,0.00,,,0.00,Wunderground v.1.15,2009-02-28 03:07:00,
2009-02-27 19:08:00,47.8,36.6,30.15,East,82,5.0,9.0,65,0.00,,,0.00,Wunderground v.1.15,2009-02-28 03:08:00,
2009-02-27 19:11:00,47.8,36.6,30.15,SE,136,0.0,3.0,65,0.00,,,0.00,Wunderground v.1.15,2009-02-28 03:11:00,
2009-02-27 19:13:00,47.7,36.9,30.15,ENE,74,2.0,5.0,66,0.00,,,0.00,Wunderground v.1.15,2009-02-28 03:13:00,
2009-02-27 19:16:00,47.9,37.1,30.15,ENE,72,2.0,5.0,66,0.00,,,0.00,Wunderground v.1.15,2009-02-28 03:16:00,
2009-02-27 19:18:00,47.8,37.0,30.15,ENE,78,2.0,5.0,66,0.00,,,0.00,Wunderground v.1.15,2009-02-28 03:18:00,
2009-02-27 19:21:00,47.8,37.0,30.16,ENE,72,0.0,3.0,66,0.00,,,0.00,Wunderground v.1.15,2009-02-28 03:21:00,
2009-02-27 19:23:00,47.6,37.2,30.16,ENE,72,0.0,3.0,67,0.00,,,0.00,Wunderground v.1.15,2009-02-28 03:23:00,
2009-02-27 19:24:00,47.6,37.2,30.16,ENE,72,0.0,3.0,67,0.00,,,0.00,Wunderground v.1.15,2009-02-28 03:24:00,
2009-02-27 19:26:00,47.7,37.3,30.16,ENE,72,0.0,3.0,67,0.00,,,0.00,Wunderground v.1.15,2009-02-28 03:26:00,
2009-02-27 19:28:00,47.6,37.6,30.16,ENE,73,0.0,3.0,68,0.00,,,0.00,Wunderground v.1.15,2009-02-28 03:28:00,
2009-02-27 19:29:00,47.6,37.6,30.16,ENE,72,0.0,3.0,68,0.00,,,0.00,Wunderground v.1.15,2009-02-28 03:29:00,
2009-02-27 19:31:00,47.5,37.8,30.16,ENE,72,2.0,3.0,69,0.00,,,0.00,Wunderground v.1.15,2009-02-28 03:31:00,
2009-02-27 19:33:00,47.6,37.9,30.16,ENE,73,2.0,3.0,69,0.00,,,0.00,Wunderground v.1.15,2009-02-28 03:33:00,
2009-02-27 19:34:00,47.6,37.9,30.16,ENE,73,1.0,3.0,69,0.00,,,0.00,Wunderground v.1.15,2009-02-28 03:34:00,
2009-02-27 19:37:00,47.4,38.1,30.16,ENE,72,0.0,3.0,70,0.00,,,0.00,Wunderground v.1.15,2009-02-28 03:37:00,
2009-02-27 19:38:00,47.4,38.5,30.17,ENE,72,0.0,3.0,71,0.00,,,0.00,Wunderground v.1.15,2009-02-28 03:38:00,
2009-02-27 19:39:00,47.4,38.5,30.17,ENE,73,0.0,3.0,71,0.00,,,0.00,Wunderground v.1.15,2009-02-28 03:39:00,
2009-02-27 19:42:00,47.5,38.2,30.16,ENE,72,0.0,1.0,70,0.00,,,0.00,Wunderground v.1.15,2009-02-28 03:42:00,
2009-02-27 19:44:00,47.5,37.8,30.16,ENE,73,0.0,1.0,69,0.00,,,0.00,Wunderground v.1.15,2009-02-28 03:44:00,
2009-02-27 19:45:00,47.6,37.9,30.16,ENE,73,0.0,1.0,69,0.00,,,0.00,Wunderground v.1.15,2009-02-28 03:45:00,
2009-02-27 19:47:00,47.5,38.2,30.16,ENE,72,0.0,1.0,70,0.00,,,0.00,Wunderground v.1.15,2009-02-28 03:47:00,
2009-02-27 19:49:00,47.6,37.9,30.16,ENE,72,1.0,1.0,69,0.00,,,0.00,Wunderground v.1.15,2009-02-28 03:49:00,
2009-02-27 19:50:00,47.7,38.0,30.16,ENE,73,2.0,3.0,69,0.00,,,0.00,Wunderground v.1.15,2009-02-28 03:50:00,
2009-02-27 19:52:00,47.3,38.0,30.16,ENE,72,1.0,3.0,70,0.00,,,0.00,Wunderground v.1.15,2009-02-28 03:52:00,
2009-02-27 19:54:00,47.3,38.4,30.16,ENE,72,1.0,3.0,71,0.00,,,0.00,Wunderground v.1.15,2009-02-28 03:54:00,
2009-02-27 19:56:00,47.1,38.2,30.16,ENE,72,1.0,3.0,71,0.00,,,0.00,Wunderground v.1.15,2009-02-28 03:56:00,
2009-02-27 19:57:00,46.5,38.3,30.16,ENE,72,0.0,3.0,73,0.00,,,0.00,Wunderground v.1.15,2009-02-28 03:57:00,
2009-02-27 19:59:00,46.1,38.3,30.16,ENE,73,0.0,3.0,74,0.00,,,0.00,Wunderground v.1.15,2009-02-28 03:59:00,
2009-02-27 20:01:00,46.0,38.5,30.16,ENE,73,0.0,1.0,75,0.00,,,0.00,Wunderground v.1.15,2009-02-28 04:01:00,
2009-02-27 20:03:00,46.1,38.6,30.16,ENE,73,0.0,1.0,75,0.00,,,0.00,Wunderground v.1.15,2009-02-28 04:03:00,
2009-02-27 20:05:00,46.5,39.0,30.16,ENE,72,0.0,1.0,75,0.00,,,0.00,Wunderground v.1.15,2009-02-28 04:05:00,
2009-02-27 20:06:00,46.7,38.9,30.16,ENE,72,0.0,1.0,74,0.00,,,0.00,Wunderground v.1.15,2009-02-28 04:06:00,
2009-02-27 20:08:00,47.2,38.6,30.16,ENE,72,0.0,1.0,72,0.00,,,0.00,Wunderground v.1.15,2009-02-28 04:08:00,
2009-02-27 20:10:00,47.6,38.7,30.16,ENE,72,1.0,1.0,71,0.00,,,0.00,Wunderground v.1.15,2009-02-28 04:10:00,
2009-02-27 20:11:00,47.7,38.8,30.16,ENE,72,1.0,2.0,71,0.00,,,0.00,Wunderground v.1.15,2009-02-28 04:11:00,
2009-02-27 20:13:00,48.0,39.0,30.16,ENE,73,1.0,2.0,71,0.00,,,0.00,Wunderground v.1.15,2009-02-28 04:13:00,
2009-02-27 20:15:00,48.0,39.4,30.16,ENE,72,1.0,2.0,72,0.00,,,0.00,Wunderground v.1.15,2009-02-28 04:15:00,
2009-02-27 20:16:00,47.8,39.6,30.16,ENE,72,0.0,2.0,73,0.00,,,0.00,Wunderground v.1.15,2009-02-28 04:16:00,
2009-02-27 20:18:00,47.7,39.5,30.16,ENE,73,1.0,2.0,73,0.00,,,0.00,Wunderground v.1.15,2009-02-28 04:18:00,
2009-02-27 20:21:00,47.6,39.4,30.16,ENE,72,0.0,2.0,73,0.00,,,0.00,Wunderground v.1.15,2009-02-28 04:21:00,
2009-02-27 20:22:00,47.6,39.7,30.16,ENE,72,1.0,2.0,74,0.00,,,0.00,Wunderground v.1.15,2009-02-28 04:22:00,
2009-02-27 20:23:00,47.4,39.5,30.16,ENE,73,1.0,2.0,74,0.00,,,0.00,Wunderground v.1.15,2009-02-28 04:23:00,
2009-02-27 20:26:00,47.3,39.4,30.16,ENE,72,2.0,2.0,74,0.00,,,0.00,Wunderground v.1.15,2009-02-28 04:26:00,
2009-02-27 20:27:00,47.2,39.0,30.16,ENE,72,2.0,2.0,73,0.00,,,0.00,Wunderground v.1.15,2009-02-28 04:27:00,
2009-02-27 20:29:00,47.0,38.4,30.16,ENE,72,1.0,2.0,72,0.00,,,0.00,Wunderground v.1.15,2009-02-28 04:29:00,
2009-02-27 20:31:00,46.7,38.5,30.16,ENE,72,0.0,1.0,73,0.00,,,0.00,Wunderground v.1.15,2009-02-28 04:31:00,
2009-02-27 20:32:00,46.5,38.3,30.16,ENE,72,0.0,1.0,73,0.00,,,0.00,Wunderground v.1.15,2009-02-28 04:32:00,
2009-02-27 20:34:00,46.3,38.1,30.16,ENE,72,0.0,1.0,73,0.00,,,0.00,Wunderground v.1.15,2009-02-28 04:34:00,
2009-02-27 20:36:00,46.1,38.3,30.16,ENE,72,0.0,1.0,74,0.00,,,0.00,Wunderground v.1.15,2009-02-28 04:36:00,
2009-02-27 20:37:00,46.0,38.2,30.16,ENE,72,0.0,1.0,74,0.00,,,0.00,Wunderground v.1.15,2009-02-28 04:37:00,
2009-02-27 20:39:00,46.1,38.3,30.16,ENE,72,1.0,2.0,74,0.00,,,0.00,Wunderground v.1.15,2009-02-28 04:39:00,
2009-02-27 20:41:00,46.2,38.4,30.16,ENE,72,1.0,3.0,74,0.00,,,0.00,Wunderground v.1.15,2009-02-28 04:41:00,
2009-02-27 20:43:00,46.5,38.3,30.16,ENE,72,3.0,3.0,73,0.00,,,0.00,Wunderground v.1.15,2009-02-28 04:43:00,
2009-02-27 20:44:00,46.6,38.1,30.16,ENE,72,2.0,3.0,72,0.00,,,0.00,Wunderground v.1.15,2009-02-28 04:44:00,
2009-02-27 20:46:00,46.6,38.1,30.15,ENE,72,2.0,3.0,72,0.00,,,0.00,Wunderground v.1.15,2009-02-28 04:46:00,
2009-02-27 20:48:00,46.6,38.1,30.15,ENE,72,3.0,3.0,72,0.00,,,0.00,Wunderground v.1.15,2009-02-28 04:48:00,
2009-02-27 20:49:00,46.6,38.1,30.15,ENE,74,3.0,4.0,72,0.00,,,0.00,Wunderground v.1.15,2009-02-28 04:49:00,
2009-02-27 20:51:00,46.6,38.1,30.16,East,80,4.0,4.0,72,0.00,,,0.00,Wunderground v.1.15,2009-02-28 04:51:00,
2009-02-27 20:53:00,46.6,38.1,30.16,ENE,63,4.0,5.0,72,0.00,,,0.00,Wunderground v.1.15,2009-02-28 04:53:00,
2009-02-27 20:54:00,46.6,38.1,30.15,ENE,75,4.0,5.0,72,0.00,,,0.00,Wunderground v.1.15,2009-02-28 04:54:00,
2009-02-27 20:57:00,46.6,38.1,30.15,ENE,69,3.0,5.0,72,0.00,,,0.00,Wunderground v.1.15,2009-02-28 04:57:00,
2009-02-27 20:58:00,46.6,38.1,30.16,ENE,69,3.0,6.0,72,0.00,,,0.00,Wunderground v.1.15,2009-02-28 04:58:00,
2009-02-27 20:59:00,46.7,38.1,30.15,ENE,66,5.0,6.0,72,0.00,,,0.00,Wunderground v.1.15,2009-02-28 04:59:00,
2009-02-27 21:00:00,46.7,38.1,30.15,East,87,3.0,3.0,72,0.00,,,0.00,Wunderground v.1.15,2009-02-28 05:00:00,
2009-02-27 21:05:00,46.7,38.1,30.15,ENE,75,3.0,5.0,72,0.00,,,0.00,Wunderground v.1.15,2009-02-28 05:05:00,
2009-02-27 21:06:00,46.7,38.1,30.15,East,83,3.0,6.0,72,0.00,,,0.00,Wunderground v.1.15,2009-02-28 05:06:00,
2009-02-27 21:10:00,46.8,38.2,30.15,East,79,4.0,5.0,72,0.00,,,0.00,Wunderground v.1.15,2009-02-28 05:10:00,
2009-02-27 21:11:00,46.9,38.3,30.16,East,80,3.0,5.0,72,0.00,,,0.00,Wunderground v.1.15,2009-02-28 05:11:00,
2009-02-27 21:15:00,46.7,38.1,30.16,ENE,74,4.0,6.0,72,0.00,,,0.00,Wunderground v.1.15,2009-02-28 05:15:00,
2009-02-27 21:16:00,46.7,38.1,30.16,ENE,74,4.0,6.0,72,0.00,,,0.00,Wunderground v.1.15,2009-02-28 05:16:00,
2009-02-27 21:20:00,46.5,38.0,30.16,East,83,4.0,4.0,72,0.00,,,0.00,Wunderground v.1.15,2009-02-28 05:20:00,
2009-02-27 21:21:00,46.5,38.0,30.16,East,83,3.0,4.0,72,0.00,,,0.00,Wunderground v.1.15,2009-02-28 05:21:00,
2009-02-27 21:22:00,46.5,38.3,30.16,East,83,3.0,4.0,73,0.00,,,0.00,Wunderground v.1.15,2009-02-28 05:22:00,
2009-02-27 21:25:00,46.2,38.0,30.16,ENE,76,2.0,6.0,73,0.00,,,0.00,Wunderground v.1.15,2009-02-28 05:25:00,
2009-02-27 21:26:00,46.2,38.0,30.16,ENE,75,2.0,6.0,73,0.00,,,0.00,Wunderground v.1.15,2009-02-28 05:26:00,
2009-02-27 21:27:00,46.1,37.9,30.16,ENE,76,2.0,6.0,73,0.00,,,0.00,Wunderground v.1.15,2009-02-28 05:27:00,
2009-02-27 21:30:00,46.0,38.2,30.16,ENE,75,2.0,3.0,74,0.00,,,0.00,Wunderground v.1.15,2009-02-28 05:30:00,
2009-02-27 21:31:00,45.9,38.1,30.16,ENE,75,2.0,3.0,74,0.00,,,0.00,Wunderground v.1.15,2009-02-28 05:31:00,
2009-02-27 21:32:00,45.9,38.1,30.16,ENE,74,3.0,3.0,74,0.00,,,0.00,Wunderground v.1.15,2009-02-28 05:32:00,
2009-02-27 21:35:00,45.7,38.2,30.16,ENE,72,3.0,5.0,75,0.00,,,0.00,Wunderground v.1.15,2009-02-28 05:35:00,
2009-02-27 21:36:00,45.7,38.2,30.16,ENE,72,2.0,5.0,75,0.00,,,0.00,Wunderground v.1.15,2009-02-28 05:36:00,
2009-02-27 21:37:00,45.7,38.2,30.16,ENE,69,4.0,5.0,75,0.00,,,0.00,Wunderground v.1.15,2009-02-28 05:37:00,
2009-02-27 21:41:00,45.5,38.0,30.16,ENE,69,2.0,3.0,75,0.00,,,0.00,Wunderground v.1.15,2009-02-28 05:41:00,
2009-02-27 21:42:00,45.5,38.0,30.16,ENE,70,2.0,3.0,75,0.00,,,0.00,Wunderground v.1.15,2009-02-28 05:42:00,
2009-02-27 21:46:00,45.2,37.7,30.16,ENE,77,2.0,5.0,75,0.00,,,0.00,Wunderground v.1.15,2009-02-28 05:46:00,
2009-02-27 21:47:00,45.2,37.7,30.16,ENE,76,3.0,5.0,75,0.00,,,0.00,Wunderground v.1.15,2009-02-28 05:47:00,
2009-02-27 21:51:00,45.3,38.2,30.16,ENE,76,4.0,4.0,76,0.00,,,0.00,Wunderground v.1.15,2009-02-28 05:51:00,
2009-02-27 21:52:00,45.3,38.2,30.16,ENE,76,3.0,4.0,76,0.00,,,0.00,Wunderground v.1.15,2009-02-28 05:52:00,
2009-02-27 21:53:00,45.5,38.4,30.16,ENE,78,4.0,5.0,76,0.00,,,0.00,Wunderground v.1.15,2009-02-28 05:53:00,
2009-02-27 21:56:00,45.6,38.1,30.15,ENE,76,3.0,5.0,75,0.00,,,0.00,Wunderground v.1.15,2009-02-28 05:56:00,
2009-02-27 21:57:00,45.6,38.1,30.15,East,85,3.0,6.0,75,0.00,,,0.00,Wunderground v.1.15,2009-02-28 05:57:00,
2009-02-27 21:58:00,45.6,38.1,30.15,East,83,3.0,6.0,75,0.00,,,0.00,Wunderground v.1.15,2009-02-28 05:58:00,
2009-02-27 22:01:00,45.7,38.2,30.15,ENE,76,4.0,6.0,75,0.00,,,0.00,Wunderground v.1.15,2009-02-28 06:01:00,
2009-02-27 22:02:00,45.7,37.9,30.15,ENE,76,4.0,6.0,74,0.00,,,0.00,Wunderground v.1.15,2009-02-28 06:02:00,
2009-02-27 22:03:00,45.8,38.0,30.15,ENE,68,5.0,6.0,74,0.00,,,0.00,Wunderground v.1.15,2009-02-28 06:03:00,
2009-02-27 22:07:00,46.0,37.8,30.15,ENE,72,5.0,6.0,73,0.00,,,0.00,Wunderground v.1.15,2009-02-28 06:07:00,
2009-02-27 22:09:00,45.9,38.1,30.15,ENE,72,10.0,10.0,74,0.00,,,0.00,Wunderground v.1.15,2009-02-28 06:09:00,
2009-02-27 22:12:00,45.8,38.0,30.14,East,82,5.0,9.0,74,0.00,,,0.00,Wunderground v.1.15,2009-02-28 06:12:00,
2009-02-27 22:13:00,45.8,38.0,30.14,East,82,4.0,9.0,74,0.00,,,0.00,Wunderground v.1.15,2009-02-28 06:13:00,
2009-02-27 22:14:00,45.8,38.0,30.14,ENE,78,3.0,9.0,74,0.00,,,0.00,Wunderground v.1.15,2009-02-28 06:14:00,
2009-02-27 22:17:00,45.7,37.5,30.14,ENE,76,5.0,9.0,73,0.00,,,0.00,Wunderground v.1.15,2009-02-28 06:17:00,
2009-02-27 22:18:00,45.8,37.6,30.14,ENE,76,3.0,9.0,73,0.00,,,0.00,Wunderground v.1.15,2009-02-28 06:18:00,
2009-02-27 22:19:00,45.8,37.6,30.15,ENE,76,3.0,9.0,73,0.00,,,0.00,Wunderground v.1.15,2009-02-28 06:19:00,
2009-02-27 22:22:00,45.7,37.5,30.15,ENE,74,3.0,5.0,73,0.00,,,0.00,Wunderground v.1.15,2009-02-28 06:22:00,
2009-02-27 22:23:00,45.6,37.4,30.15,ENE,69,7.0,7.0,73,0.00,,,0.00,Wunderground v.1.15,2009-02-28 06:23:00,
2009-02-27 22:24:00,45.6,37.4,30.15,East,79,5.0,7.0,73,0.00,,,0.00,Wunderground v.1.15,2009-02-28 06:24:00,
2009-02-27 22:27:00,45.5,37.3,30.14,East,81,5.0,7.0,73,0.00,,,0.00,Wunderground v.1.15,2009-02-28 06:27:00,
2009-02-27 22:28:00,45.6,37.4,30.14,ENE,62,5.0,7.0,73,0.00,,,0.00,Wunderground v.1.15,2009-02-28 06:28:00,
2009-02-27 22:29:00,45.5,37.3,30.14,ENE,72,4.0,7.0,73,0.00,,,0.00,Wunderground v.1.15,2009-02-28 06:29:00,
2009-02-27 22:30:00,45.5,37.3,30.14,ENE,74,3.0,4.0,73,0.00,,,0.00,Wunderground v.1.15,2009-02-28 06:30:00,
2009-02-27 22:32:00,45.4,37.2,30.15,ENE,75,3.0,6.0,73,0.00,,,0.00,Wunderground v.1.15,2009-02-28 06:32:00,
2009-02-27 22:33:00,45.4,37.6,30.15,ENE,76,3.0,6.0,74,0.00,,,0.00,Wunderground v.1.15,2009-02-28 06:33:00,
2009-02-27 22:34:00,45.4,37.6,30.15,ENE,75,3.0,6.0,74,0.00,,,0.00,Wunderground v.1.15,2009-02-28 06:34:00,
2009-02-27 22:35:00,45.3,37.5,30.15,ENE,75,4.0,6.0,74,0.00,,,0.00,Wunderground v.1.15,2009-02-28 06:35:00,
2009-02-27 22:38:00,45.3,37.5,30.15,East,89,3.0,9.0,74,0.00,,,0.00,Wunderground v.1.15,2009-02-28 06:38:00,
2009-02-27 22:39:00,45.4,37.6,30.15,ENE,78,5.0,9.0,74,0.00,,,0.00,Wunderground v.1.15,2009-02-28 06:39:00,
2009-02-27 22:40:00,45.4,37.6,30.16,East,80,3.0,4.0,74,0.00,,,0.00,Wunderground v.1.15,2009-02-28 06:40:00,
2009-02-27 22:43:00,45.5,37.7,30.16,ENE,75,4.0,6.0,74,0.00,,,0.00,Wunderground v.1.15,2009-02-28 06:43:00,
2009-02-27 22:45:00,45.7,38.2,30.16,East,80,3.0,6.0,75,0.00,,,0.00,Wunderground v.1.15,2009-02-28 06:45:00,
2009-02-27 22:48:00,45.9,38.1,30.15,East,86,2.0,6.0,74,0.00,,,0.00,Wunderground v.1.15,2009-02-28 06:48:00,
2009-02-27 22:49:00,46.0,38.2,30.15,East,86,3.0,6.0,74,0.00,,,0.00,Wunderground v.1.15,2009-02-28 06:49:00,
2009-02-27 22:50:00,46.1,38.3,30.15,East,86,2.0,3.0,74,0.00,,,0.00,Wunderground v.1.15,2009-02-28 06:50:00,
2009-02-27 22:51:00,46.1,38.6,30.15,East,86,1.0,3.0,75,0.00,,,0.00,Wunderground v.1.15,2009-02-28 06:51:00,
2009-02-27 22:53:00,46.3,38.8,30.15,East,82,3.0,4.0,75,0.00,,,0.00,Wunderground v.1.15,2009-02-28 06:53:00,
2009-02-27 22:54:00,46.4,38.9,30.15,East,82,1.0,4.0,75,0.00,,,0.00,Wunderground v.1.15,2009-02-28 06:54:00,
2009-02-27 22:55:00,46.5,39.0,30.15,ENE,78,0.0,4.0,75,0.00,,,0.00,Wunderground v.1.15,2009-02-28 06:55:00,
2009-02-27 22:56:00,46.5,39.0,30.15,ENE,78,0.0,4.0,75,0.00,,,0.00,Wunderground v.1.15,2009-02-28 06:56:00,
2009-02-27 22:59:00,47.1,39.6,30.15,East,87,2.0,4.0,75,0.00,,,0.00,Wunderground v.1.15,2009-02-28 06:59:00,
2009-02-27 23:01:00,47.4,39.5,30.15,East,79,2.0,4.0,74,0.00,,,0.00,Wunderground v.1.15,2009-02-28 07:01:00,
2009-02-27 23:04:00,47.7,39.5,30.15,ENE,76,2.0,5.0,73,0.00,,,0.00,Wunderground v.1.15,2009-02-28 07:04:00,
2009-02-27 23:06:00,47.6,39.4,30.15,ENE,78,2.0,5.0,73,0.00,,,0.00,Wunderground v.1.15,2009-02-28 07:06:00,
2009-02-27 23:07:00,47.6,39.4,30.15,ENE,71,4.0,5.0,73,0.00,,,0.00,Wunderground v.1.15,2009-02-28 07:07:00,
2009-02-27 23:09:00,47.5,39.3,30.15,ENE,64,5.0,5.0,73,0.00,,,0.00,Wunderground v.1.15,2009-02-28 07:09:00,
2009-02-27 23:11:00,47.5,39.3,30.15,ENE,71,2.0,5.0,73,0.00,,,0.00,Wunderground v.1.15,2009-02-28 07:11:00,
2009-02-27 23:12:00,47.5,39.3,30.15,ENE,76,1.0,5.0,73,0.00,,,0.00,Wunderground v.1.15,2009-02-28 07:12:00,
2009-02-27 23:14:00,47.5,39.3,30.15,East,82,1.0,5.0,73,0.00,,,0.00,Wunderground v.1.15,2009-02-28 07:14:00,
2009-02-27 23:16:00,47.5,39.3,30.15,East,80,3.0,5.0,73,0.00,,,0.00,Wunderground v.1.15,2009-02-28 07:16:00,
2009-02-27 23:17:00,47.5,39.3,30.15,ENE,76,4.0,5.0,73,0.00,,,0.00,Wunderground v.1.15,2009-02-28 07:17:00,
2009-02-27 23:20:00,47.6,39.4,30.15,East,85,2.0,3.0,73,0.00,,,0.00,Wunderground v.1.15,2009-02-28 07:20:00,
2009-02-27 23:21:00,47.5,39.3,30.15,ENE,71,2.0,4.0,73,0.00,,,0.00,Wunderground v.1.15,2009-02-28 07:21:00,
2009-02-27 23:22:00,47.6,39.4,30.15,ENE,72,2.0,5.0,73,0.00,,,0.00,Wunderground v.1.15,2009-02-28 07:22:00,
2009-02-27 23:25:00,47.8,39.2,30.15,ENE,72,2.0,5.0,72,0.00,,,0.00,Wunderground v.1.15,2009-02-28 07:25:00,
2009-02-27 23:27:00,47.9,39.3,30.15,ENE,72,2.0,5.0,72,0.00,,,0.00,Wunderground v.1.15,2009-02-28 07:27:00,
2009-02-27 23:28:00,48.0,39.4,30.15,ENE,72,2.0,5.0,72,0.00,,,0.00,Wunderground v.1.15,2009-02-28 07:28:00,
2009-02-27 23:30:00,48.1,39.1,30.15,ENE,72,1.0,2.0,71,0.00,,,0.00,Wunderground v.1.15,2009-02-28 07:30:00,
2009-02-27 23:31:00,48.1,38.8,30.15,ENE,72,1.0,2.0,70,0.00,,,0.00,Wunderground v.1.15,2009-02-28 07:31:00,
2009-02-27 23:32:00,48.2,38.5,30.15,ENE,72,2.0,2.0,69,0.00,,,0.00,Wunderground v.1.15,2009-02-28 07:32:00,
2009-02-27 23:33:00,48.3,38.2,30.15,ENE,72,0.0,2.0,68,0.00,,,0.00,Wunderground v.1.15,2009-02-28 07:33:00,
2009-02-27 23:35:00,48.5,37.7,30.15,ENE,72,0.0,2.0,66,0.00,,,0.00,Wunderground v.1.15,2009-02-28 07:35:00,
2009-02-27 23:36:00,48.5,37.3,30.15,ENE,72,1.0,2.0,65,0.00,,,0.00,Wunderground v.1.15,2009-02-28 07:36:00,
2009-02-27 23:37:00,48.6,37.0,30.15,ENE,72,1.0,2.0,64,0.00,,,0.00,Wunderground v.1.15,2009-02-28 07:37:00,
2009-02-27 23:39:00,48.8,37.2,30.15,ENE,72,0.0,2.0,64,0.00,,,0.00,Wunderground v.1.15,2009-02-28 07:39:00,
2009-02-27 23:40:00,49.0,36.5,30.15,ENE,72,2.0,2.0,62,0.00,,,0.00,Wunderground v.1.15,2009-02-28 07:40:00,
2009-02-27 23:41:00,49.0,36.5,30.15,ENE,72,3.0,3.0,62,0.00,,,0.00,Wunderground v.1.15,2009-02-28 07:41:00,
2009-02-27 23:42:00,48.8,36.8,30.15,ENE,72,2.0,3.0,63,0.00,,,0.00,Wunderground v.1.15,2009-02-28 07:42:00,
2009-02-27 23:44:00,48.6,37.0,30.15,ENE,72,2.0,3.0,64,0.00,,,0.00,Wunderground v.1.15,2009-02-28 07:44:00,
2009-02-27 23:46:00,48.4,37.6,30.15,ENE,72,1.0,4.0,66,0.00,,,0.00,Wunderground v.1.15,2009-02-28 07:46:00,
2009-02-27 23:47:00,48.3,37.8,30.15,ENE,72,1.0,4.0,67,0.00,,,0.00,Wunderground v.1.15,2009-02-28 07:47:00,
2009-02-27 23:49:00,48.4,38.3,30.15,ENE,72,1.0,4.0,68,0.00,,,0.00,Wunderground v.1.15,2009-02-28 07:49:00,
2009-02-27 23:51:00,48.5,38.8,30.15,ENE,72,1.0,4.0,69,0.00,,,0.00,Wunderground v.1.15,2009-02-28 07:51:00,
2009-02-27 23:52:00,48.5,38.8,30.15,ENE,72,0.0,4.0,69,0.00,,,0.00,Wunderground v.1.15,2009-02-28 07:52:00,
2009-02-27 23:53:00,48.6,38.9,30.15,ENE,72,2.0,4.0,69,0.00,,,0.00,Wunderground v.1.15,2009-02-28 07:53:00,
2009-02-27 23:54:00,48.6,38.9,30.15,ENE,72,3.0,4.0,69,0.00,,,0.00,Wunderground v.1.15,2009-02-28 07:54:00,
2009-02-27 23:56:00,48.6,39.3,30.15,ENE,74,1.0,4.0,70,0.00,,,0.00,Wunderground v.1.15,2009-02-28 07:56:00,
2009-02-27 23:57:00,48.6,39.3,30.15,ENE,74,3.0,4.0,70,0.00,,,0.00,Wunderground v.1.15,2009-02-28 07:57:00,
2009-02-27 23:58:00,48.6,39.3,30.16,ENE,74,1.0,4.0,70,0.00,,,0.00,Wunderground v.1.15,2009-02-28 07:58:00,
2009-02-27 23:59:00,48.6,39.6,30.16,ENE,75,1.0,5.0,71,0.00,,,0.00,Wunderground v.1.15,2009-02-28 07:59:00,